M I D A S
Marine Information and Data Acquisition System
Tripno 455 of the Zeeleeuw from 2003-03-25 09:09:30 to 2003-03-25 17:48:48
Back to CruiseResearch ActivitiesStationsMapUnderway DataData graphs

EquipmentUnitsComment
TimeDGPSUTC
LatitudeDGPSDM.mWGS84
LongitudeDGPSDM.mWGS84
TemperatureSBE03/SBE38deg celciusITS90
ConductivitySBE21S/mITS90
SalinitySBE21 Practical Salinity Units
ChlorophylAChelsea fluorimeterg/lCalibrated in Aceton
Missing or incorrect values are displayed as -999
Sea surface data collected by the RV Zeeleeuw from 2003-03-25 09:09:30 to 2003-03-25 17:48:48
                                                                                    Next 1000 lines
Time Latitude Longitude Temperature Conductivity Salinity ChlorophylA
2003-03-25 09:09:39 51°13.601 2°56.103 -999 3.325859 21.95184 -0.848668
2003-03-25 09:09:43 51°13.601 2°56.103 -999 3.325859 21.95218 -0.848668
2003-03-25 09:09:49 51°13.601 2°56.103 -999 3.325754 21.951412 -0.848668
2003-03-25 09:09:53 51°13.601 2°56.102 -999 3.325859 21.95218 -0.848668
2003-03-25 09:09:59 51°13.601 2°56.103 -999 3.325754 21.951412 -0.848668
2003-03-25 09:10:03 51°13.601 2°56.102 -999 3.325754 21.951412 -0.848668
2003-03-25 09:10:09 51°13.601 2°56.102 -999 3.325859 21.95218 -0.848668
2003-03-25 09:10:13 51°13.601 2°56.102 -999 3.325859 21.95184 -0.848668
2003-03-25 09:10:18 51°13.601 2°56.102 -999 3.325754 21.951412 -0.848668
2003-03-25 09:10:24 51°13.601 2°56.102 -999 3.325859 21.95184 -0.848668
2003-03-25 09:10:29 51°13.601 2°56.102 -999 3.325859 21.95184 -0.848668
2003-03-25 09:10:35 51°13.6 2°56.102 -999 3.325859 21.95184 -0.848668
2003-03-25 09:10:39 51°13.6 2°56.102 -999 3.325754 21.951412 -0.848668
2003-03-25 09:10:43 51°13.6 2°56.102 -999 3.325859 21.9515 -0.848668
2003-03-25 09:10:49 51°13.601 2°56.101 -999 3.325859 21.95218 -0.882377
2003-03-25 09:10:52 51°13.601 2°56.101 -999 3.325754 21.951073 -0.814958
2003-03-25 09:10:59 51°13.602 2°56.099 -999 3.325859 21.95218 -0.848668
2003-03-25 09:11:04 51°13.602 2°56.096 -999 3.325859 21.95218 -0.848668
2003-03-25 09:11:09 51°13.603 2°56.093 -999 3.325859 21.95184 -0.848668
2003-03-25 09:11:13 51°13.604 2°56.091 -999 3.325859 21.95218 -0.848668
2003-03-25 09:11:20 51°13.606 2°56.085 -999 3.325859 21.95184 -0.848668
2003-03-25 09:11:25 51°13.607 2°56.08 -999 3.325754 21.951073 -0.814958
2003-03-25 09:11:30 51°13.609 2°56.075 -999 3.325859 21.95218 -0.848668
2003-03-25 09:11:35 51°13.611 2°56.07 -999 3.325859 21.95218 -0.848668
2003-03-25 09:11:40 51°13.612 2°56.064 -999 3.325859 21.95218 -0.848668
2003-03-25 09:11:45 51°13.614 2°56.057 -999 3.325859 21.95184 -0.882377
2003-03-25 09:11:50 51°13.616 2°56.051 -999 3.325859 21.95184 -0.848668
2003-03-25 09:11:55 51°13.618 2°56.044 -999 3.325859 21.95184 -0.848668
2003-03-25 09:12:00 51°13.62 2°56.037 -999 3.325859 21.95184 -0.848668
2003-03-25 09:12:05 51°13.622 2°56.03 -999 3.325859 21.95184 -0.848668
2003-03-25 09:12:10 51°13.623 2°56.023 -999 3.325859 21.95218 -0.848668
2003-03-25 09:12:15 51°13.625 2°56.016 -999 3.325859 21.95184 -0.848668
2003-03-25 09:12:20 51°13.627 2°56.008 -999 3.325859 21.95184 -0.882377
2003-03-25 09:12:25 51°13.629 2°56.001 -999 3.325754 21.951412 -0.848668
2003-03-25 09:12:30 51°13.632 2°55.993 -999 3.325859 21.95218 -0.848668
2003-03-25 09:12:35 51°13.634 2°55.985 -999 3.325859 21.95218 -0.848668
2003-03-25 09:12:40 51°13.636 2°55.976 -999 3.325859 21.9515 -0.848668
2003-03-25 09:12:45 51°13.638 2°55.968 -999 3.325859 21.95218 -0.814958
2003-03-25 09:12:49 51°13.64 2°55.961 -999 3.325859 21.95184 -0.848668
2003-03-25 09:12:55 51°13.642 2°55.951 -999 3.325859 21.95184 -0.848668
2003-03-25 09:13:00 51°13.645 2°55.942 -999 3.325859 21.95184 -0.882377
2003-03-25 09:13:05 51°13.647 2°55.933 -999 3.325859 21.95184 -0.882377
2003-03-25 09:13:10 51°13.649 2°55.924 -999 3.325859 21.95184 -0.848668
2003-03-25 09:13:15 51°13.651 2°55.915 -999 3.325859 21.95184 -0.848668
2003-03-25 09:13:20 51°13.653 2°55.906 -999 3.325965 21.952607 -0.848668
2003-03-25 09:13:25 51°13.656 2°55.897 -999 3.325859 21.95184 -0.882377
2003-03-25 09:13:30 51°13.658 2°55.887 -999 3.325859 21.95184 -0.814958
2003-03-25 09:13:35 51°13.66 2°55.879 -999 3.325859 21.95184 -0.814958
2003-03-25 09:13:40 51°13.662 2°55.87 -999 3.325965 21.952607 -0.848668
2003-03-25 09:13:45 51°13.663 2°55.862 -999 3.325859 21.95184 -0.848668
2003-03-25 09:13:50 51°13.665 2°55.854 -999 3.325859 21.95184 -0.848668
2003-03-25 09:13:55 51°13.666 2°55.845 -999 3.325965 21.952607 -0.848668
2003-03-25 09:14:00 51°13.668 2°55.837 -999 3.325859 21.9515 -0.848668
2003-03-25 09:14:05 51°13.669 2°55.828 -999 3.325859 21.9515 -0.848668
2003-03-25 09:14:09 51°13.67 2°55.821 -999 3.325965 21.952268 -0.848668
2003-03-25 09:14:15 51°13.672 2°55.81 -999 3.325859 21.9515 -0.882377
2003-03-25 09:14:20 51°13.673 2°55.802 -999 3.325965 21.952268 -0.848668
2003-03-25 09:14:25 51°13.674 2°55.794 -999 3.325965 21.952268 -0.848668
2003-03-25 09:14:29 51°13.674 2°55.788 -999 3.325965 21.952607 -0.848668
2003-03-25 09:14:33 51°13.674 2°55.783 -999 3.325965 21.952607 -0.848668
2003-03-25 09:14:39 51°13.674 2°55.775 -999 3.325859 21.9515 -0.848668
2003-03-25 09:14:43 51°13.674 2°55.77 -999 3.325965 21.952268 -0.848668
2003-03-25 09:14:49 51°13.673 2°55.763 -999 3.325965 21.951928 -0.882377
2003-03-25 09:14:53 51°13.673 2°55.758 -999 3.325859 21.95116 -0.848668
2003-03-25 09:14:59 51°13.673 2°55.752 -999 3.325965 21.951928 -0.882377
2003-03-25 09:15:03 51°13.673 2°55.75 -999 3.325965 21.951928 -0.882377
2003-03-25 09:15:09 51°13.673 2°55.748 -999 3.325965 21.951928 -0.848668
2003-03-25 09:15:13 51°13.673 2°55.747 -999 3.325965 21.951588 -0.848668
2003-03-25 09:15:19 51°13.673 2°55.746 -999 3.325965 21.951928 -0.848668
2003-03-25 09:15:23 51°13.672 2°55.745 -999 3.325965 21.952268 -0.848668
2003-03-25 09:15:29 51°13.672 2°55.745 -999 3.325859 21.9515 -0.814958
2003-03-25 09:15:33 51°13.673 2°55.746 -999 3.325859 21.9515 -0.814958
2003-03-25 09:15:39 51°13.674 2°55.747 -999 3.325859 21.9515 -0.882377
2003-03-25 09:15:43 51°13.674 2°55.748 -999 3.325965 21.951928 -0.848668
2003-03-25 09:15:49 51°13.676 2°55.75 -999 3.32607 21.953375 -0.848668
2003-03-25 09:15:53 51°13.677 2°55.752 -999 3.325965 21.952607 -0.882377
2003-03-25 09:15:58 51°13.679 2°55.754 -999 3.32607 21.953035 -0.848668
2003-03-25 09:16:04 51°13.682 2°55.758 -999 3.32607 21.953035 -0.848668
2003-03-25 09:16:09 51°13.685 2°55.761 -999 3.325965 21.952607 -0.848668
2003-03-25 09:16:13 51°13.687 2°55.763 -999 3.325965 21.952607 -0.848668
2003-03-25 09:16:19 51°13.692 2°55.766 -999 3.32607 21.953035 -0.848668
2003-03-25 09:16:24 51°13.695 2°55.767 -999 3.32607 21.953035 -0.848668
2003-03-25 09:16:29 51°13.699 2°55.768 -999 3.325965 21.952607 -0.848668
2003-03-25 09:16:33 51°13.702 2°55.768 -999 3.325965 21.952607 -0.848668
2003-03-25 09:16:39 51°13.707 2°55.766 -999 3.325965 21.952268 -0.814958
2003-03-25 09:16:44 51°13.712 2°55.763 -999 3.325965 21.952607 -0.848668
2003-03-25 09:16:49 51°13.716 2°55.759 -999 3.325965 21.952607 -0.848668
2003-03-25 09:16:53 51°13.719 2°55.756 -999 3.32607 21.953375 -0.882377
2003-03-25 09:16:59 51°13.723 2°55.75 -999 3.325965 21.952607 -0.848668
2003-03-25 09:17:03 51°13.726 2°55.746 -999 3.325965 21.952607 -0.848668
2003-03-25 09:17:09 51°13.731 2°55.739 -999 3.325965 21.952268 -0.848668
2003-03-25 09:17:13 51°13.734 2°55.734 -999 3.326175 21.952783 -0.848668
2003-03-25 09:17:18 51°13.739 2°55.727 -999 3.32607 21.952016 -0.882377
2003-03-25 09:17:23 51°13.743 2°55.72 -999 3.32607 21.952016 -0.848668
2003-03-25 09:17:29 51°13.75 2°55.712 -999 3.325965 21.951248 -0.848668
2003-03-25 09:17:33 51°13.755 2°55.706 -999 3.325965 21.951248 -0.848668
2003-03-25 09:17:39 51°13.763 2°55.697 -999 3.32607 21.952695 -0.848668
2003-03-25 09:17:44 51°13.77 2°55.689 -999 3.32607 21.953035 -0.882377
2003-03-25 09:17:49 51°13.777 2°55.681 -999 3.32607 21.953035 -0.848668
2003-03-25 09:17:54 51°13.784 2°55.673 -999 3.32607 21.952695 -0.814958
2003-03-25 09:17:59 51°13.792 2°55.666 -999 3.32607 21.953035 -0.848668
2003-03-25 09:18:01 51°13.795 2°55.664 -999 3.32607 21.953035 -0.848668
2003-03-25 09:18:09 51°13.809 2°55.653 -999 3.32607 21.952695 -0.848668
2003-03-25 09:18:13 51°13.816 2°55.648 -999 3.32607 21.953035 -0.848668
2003-03-25 09:18:19 51°13.827 2°55.64 -999 3.32607 21.953375 -0.848668
2003-03-25 09:18:23 51°13.834 2°55.635 -999 3.32607 21.953035 -0.848668
2003-03-25 09:18:29 51°13.845 2°55.628 -999 3.326175 21.954142 -0.882377
2003-03-25 09:18:33 51°13.853 2°55.623 -999 3.326175 21.954142 -0.882377
2003-03-25 09:18:39 51°13.865 2°55.613 -999 3.32607 21.953715 -0.848668
2003-03-25 09:18:43 51°13.873 2°55.606 -999 3.32607 21.953375 -0.882377
2003-03-25 09:18:49 51°13.885 2°55.595 -999 3.326175 21.954142 -0.848668
2003-03-25 09:18:53 51°13.893 2°55.589 -999 3.32607 21.953035 -0.882377
2003-03-25 09:18:59 51°13.905 2°55.58 -999 3.32607 21.953375 -0.848668
2003-03-25 09:19:04 51°13.915 2°55.572 -999 3.32607 21.953375 -0.848668
2003-03-25 09:19:09 51°13.925 2°55.565 -999 3.32607 21.953035 -0.848668
2003-03-25 09:19:13 51°13.932 2°55.559 -999 3.326175 21.953803 -0.882377
2003-03-25 09:19:19 51°13.944 2°55.55 -999 3.32607 21.953375 -0.848668
2003-03-25 09:19:24 51°13.954 2°55.542 -999 3.32607 21.953715 -0.848668
2003-03-25 09:19:29 51°13.964 2°55.536 -999 3.32607 21.953375 -0.848668
2003-03-25 09:19:32 51°13.97 2°55.531 -999 3.32607 21.953375 -0.848668
2003-03-25 09:19:38 51°13.983 2°55.522 -999 3.326175 21.953803 -0.848668
2003-03-25 09:19:43 51°13.994 2°55.513 -999 3.326175 21.953463 -0.882377
2003-03-25 09:19:49 51°14.006 2°55.503 -999 3.326175 21.953463 -0.848668
2003-03-25 09:19:53 51°14.014 2°55.497 -999 3.32607 21.952695 -0.848668
2003-03-25 09:19:59 51°14.026 2°55.488 -999 3.326175 21.953463 -0.848668
2003-03-25 09:20:03 51°14.034 2°55.482 -999 3.326175 21.953463 -0.848668
2003-03-25 09:20:09 51°14.046 2°55.472 -999 3.326175 21.953463 -0.848668
2003-03-25 09:20:12 51°14.052 2°55.467 -999 3.32607 21.952695 -0.848668
2003-03-25 09:20:19 51°14.066 2°55.456 -999 3.326175 21.953463 -0.848668
2003-03-25 09:20:24 51°14.076 2°55.449 -999 3.326175 21.953463 -0.814958
2003-03-25 09:20:29 51°14.086 2°55.441 -999 3.326281 21.95423 -0.848668
2003-03-25 09:20:33 51°14.094 2°55.435 -999 3.326281 21.95423 -0.848668
2003-03-25 09:20:39 51°14.106 2°55.427 -999 3.326175 21.953463 -0.848668
2003-03-25 09:20:44 51°14.117 2°55.421 -999 3.32607 21.952695 -0.882377
2003-03-25 09:20:49 51°14.127 2°55.415 -999 3.326281 21.95389 -0.848668
2003-03-25 09:20:53 51°14.136 2°55.41 -999 3.326175 21.953463 -0.882377
2003-03-25 09:20:59 51°14.149 2°55.401 -999 3.326175 21.953463 -0.848668
2003-03-25 09:21:03 51°14.157 2°55.394 -999 3.326175 21.953463 -0.848668
2003-03-25 09:21:09 51°14.169 2°55.384 -999 3.326175 21.953463 -0.848668
2003-03-25 09:21:14 51°14.18 2°55.375 -999 3.326281 21.95423 -0.882377
2003-03-25 09:21:19 51°14.191 2°55.366 -999 3.326281 21.953551 -0.882377
2003-03-25 09:21:23 51°14.2 2°55.359 -999 3.326281 21.95389 -0.848668
2003-03-25 09:21:29 51°14.212 2°55.345 -999 3.326281 21.95389 -0.814958
2003-03-25 09:21:33 51°14.22 2°55.335 -999 3.326281 21.95389 -0.814958
2003-03-25 09:21:39 51°14.232 2°55.32 -999 3.326175 21.953463 -0.848668
2003-03-25 09:21:44 51°14.241 2°55.306 -999 3.326175 21.953123 -0.848668
2003-03-25 09:21:49 51°14.25 2°55.292 -999 3.326281 21.95423 -0.848668
2003-03-25 09:21:53 51°14.256 2°55.279 -999 3.326175 21.953123 -0.882377
2003-03-25 09:21:59 51°14.266 2°55.259 -999 3.326175 21.953123 -0.848668
2003-03-25 09:22:04 51°14.274 2°55.242 -999 3.326175 21.953123 -0.848668
2003-03-25 09:22:09 51°14.283 2°55.226 -999 3.326281 21.953551 -0.882377
2003-03-25 09:22:13 51°14.29 2°55.213 -999 3.326281 21.952871 -0.848668
2003-03-25 09:22:19 51°14.301 2°55.193 -999 3.326281 21.952871 -0.882377
2003-03-25 09:22:24 51°14.31 2°55.177 -999 3.326175 21.952104 -0.814958
2003-03-25 09:22:29 51°14.319 2°55.161 -999 3.326281 21.952871 -0.882377
2003-03-25 09:22:33 51°14.326 2°55.148 -999 3.326281 21.952871 -0.882377
2003-03-25 09:22:39 51°14.337 2°55.128 -999 3.326281 21.953551 -0.848668
2003-03-25 09:22:44 51°14.346 2°55.112 -999 3.326281 21.953211 -0.848668
2003-03-25 09:22:49 51°14.356 2°55.098 -999 3.326281 21.953211 -0.848668
2003-03-25 09:22:53 51°14.365 2°55.087 -999 3.326386 21.953978 -0.882377
2003-03-25 09:22:59 51°14.378 2°55.071 -999 3.326281 21.953211 -0.848668
2003-03-25 09:23:03 51°14.387 2°55.061 -999 3.326281 21.953211 -0.848668
2003-03-25 09:23:09 51°14.4 2°55.045 -999 3.326175 21.952783 -0.882377
2003-03-25 09:23:12 51°14.406 2°55.037 -999 3.326386 21.954318 -0.848668
2003-03-25 09:23:18 51°14.419 2°55.021 -999 3.326281 21.953551 -0.848668
2003-03-25 09:23:24 51°14.432 2°55.006 -999 3.326281 21.953211 -0.882377
2003-03-25 09:23:29 51°14.443 2°54.995 -999 3.326386 21.953978 -0.848668
2003-03-25 09:23:33 51°14.452 2°54.986 -999 3.326386 21.953978 -0.848668
2003-03-25 09:23:39 51°14.465 2°54.972 -999 3.326281 21.953211 -0.848668
2003-03-25 09:23:43 51°14.474 2°54.963 -999 3.326281 21.953211 -0.848668
2003-03-25 09:23:49 51°14.488 2°54.95 -999 3.326386 21.954658 -0.882377
2003-03-25 09:23:53 51°14.497 2°54.94 -999 3.326281 21.953551 -0.882377
2003-03-25 09:23:59 51°14.511 2°54.927 -999 3.326281 21.95389 -0.848668
2003-03-25 09:24:03 51°14.52 2°54.918 -999 3.326281 21.95389 -0.848668
2003-03-25 09:24:09 51°14.534 2°54.904 -999 3.326281 21.953211 -0.848668
2003-03-25 09:24:12 51°14.541 2°54.897 -999 3.326281 21.953551 -0.848668
2003-03-25 09:24:18 51°14.555 2°54.883 -999 3.326386 21.953978 -0.848668
2003-03-25 09:24:24 51°14.569 2°54.869 -999 3.326386 21.953978 -0.882377
2003-03-25 09:24:29 51°14.581 2°54.859 -999 3.326386 21.953638 -0.848668
2003-03-25 09:24:33 51°14.59 2°54.85 -999 3.326386 21.953638 -0.848668
2003-03-25 09:24:39 51°14.605 2°54.837 -999 3.326281 21.952531 -0.882377
2003-03-25 09:24:43 51°14.615 2°54.828 -999 3.326386 21.953638 -0.882377
2003-03-25 09:24:49 51°14.63 2°54.815 -999 3.326281 21.952871 -0.848668
2003-03-25 09:24:52 51°14.637 2°54.808 -999 3.326386 21.953638 -0.848668
2003-03-25 09:24:59 51°14.655 2°54.791 -999 3.326491 21.954066 -0.882377
2003-03-25 09:25:03 51°14.665 2°54.78 -999 3.326491 21.954066 -0.882377
2003-03-25 09:25:09 51°14.681 2°54.765 -999 3.326281 21.952871 -0.882377
2003-03-25 09:25:13 51°14.692 2°54.754 -999 3.326386 21.953299 -0.848668
2003-03-25 09:25:19 51°14.709 2°54.738 -999 3.326491 21.953726 -0.848668
2003-03-25 09:25:24 51°14.723 2°54.726 -999 3.326386 21.953299 -0.848668
2003-03-25 09:25:29 51°14.737 2°54.713 -999 3.326386 21.952959 -0.848668
2003-03-25 09:25:33 51°14.749 2°54.704 -999 3.326386 21.952959 -0.848668
2003-03-25 09:25:39 51°14.766 2°54.688 -999 3.326491 21.954066 -0.848668
2003-03-25 09:25:43 51°14.778 2°54.678 29.598724 3.326491 21.954066 -0.882377
2003-03-25 09:25:49 51°14.796 2°54.661 28.368214 3.326386 21.953299 -0.882377
2003-03-25 09:25:53 51°14.808 2°54.65 28.926471 3.326491 21.954066 -0.882377
2003-03-25 09:25:59 51°14.826 2°54.633 28.663343 3.326491 21.953726 -0.882377
2003-03-25 09:26:04 51°14.841 2°54.62 28.663343 3.326491 21.953726 -0.882377
2003-03-25 09:26:09 51°14.855 2°54.606 27.802457 3.326386 21.952959 -0.848668
2003-03-25 09:26:13 51°14.867 2°54.596 29.452256 3.326386 21.952959 -0.882377
2003-03-25 09:26:19 51°14.885 2°54.579 28.273574 3.326491 21.954066 -0.848668
2003-03-25 09:26:24 51°14.9 2°54.566 28.513926 3.326491 21.953726 -0.848668
2003-03-25 09:26:28 51°14.912 2°54.555 29.085392 3.326597 21.954154 -0.848668
2003-03-25 09:26:33 51°14.927 2°54.542 29.085392 3.326597 21.954154 -0.848668
2003-03-25 09:26:39 51°14.945 2°54.526 28.426208 3.326491 21.953726 -0.848668
2003-03-25 09:26:43 51°14.957 2°54.515 28.246997 3.326491 21.954066 -0.848668
2003-03-25 09:26:49 51°14.975 2°54.499 29.014071 3.326597 21.954494 -0.848668
2003-03-25 09:26:53 51°14.987 2°54.488 29.298275 3.326491 21.953726 -0.848668
2003-03-25 09:26:59 51°15.005 2°54.472 28.218459 3.326597 21.954494 -0.882377
2003-03-25 09:27:02 51°15.014 2°54.464 28.218459 3.326597 21.954494 -0.882377
2003-03-25 09:27:09 51°15.035 2°54.445 27.61391 3.326597 21.954494 -0.848668
2003-03-25 09:27:13 51°15.047 2°54.434 29.038805 3.326491 21.953726 -0.848668
2003-03-25 09:27:19 51°15.064 2°54.419 28.016762 3.326597 21.954154 -0.848668
2003-03-25 09:27:23 51°15.076 2°54.409 27.83148 3.326597 21.954494 -0.848668
2003-03-25 09:27:29 51°15.094 2°54.392 27.9191 3.326491 21.953387 -0.848668
2003-03-25 09:27:33 51°15.106 2°54.382 27.9191 3.326491 21.953387 -0.848668
2003-03-25 09:27:39 51°15.124 2°54.365 28.704169 3.326597 21.954154 -0.848668
2003-03-25 09:27:42 51°15.133 2°54.357 27.263524 3.326597 21.954154 -0.848668
2003-03-25 09:27:49 51°15.154 2°54.338 28.799988 3.326597 21.954154 -0.882377
2003-03-25 09:27:53 51°15.166 2°54.327 27.918484 3.326597 21.954154 -0.882377
2003-03-25 09:27:59 51°15.185 2°54.311 29.098034 3.326597 21.954154 -0.814958
2003-03-25 09:28:03 51°15.197 2°54.3 29.098034 3.326597 21.954154 -0.814958
2003-03-25 09:28:09 51°15.214 2°54.285 29.33089 3.326491 21.953726 -0.848668
2003-03-25 09:28:12 51°15.223 2°54.277 27.877699 3.326702 21.954582 -0.882377
2003-03-25 09:28:19 51°15.245 2°54.259 29.502496 3.326597 21.954494 -0.848668
2003-03-25 09:28:24 51°15.26 2°54.246 27.80391 3.326597 21.954154 -0.848668
2003-03-25 09:28:29 51°15.275 2°54.233 28.659392 3.326491 21.953387 -0.848668
2003-03-25 09:28:33 51°15.287 2°54.223 28.659392 3.326491 21.953387 -0.848668
2003-03-25 09:28:39 51°15.305 2°54.207 28.530947 3.326597 21.954154 -0.848668
2003-03-25 09:28:43 51°15.317 2°54.196 29.233963 3.326702 21.954921 -0.848668
2003-03-25 09:28:49 51°15.334 2°54.18 28.565587 3.326597 21.954154 -0.882377
2003-03-25 09:28:53 51°15.346 2°54.17 28.141499 3.326597 21.954154 -0.848668
2003-03-25 09:28:59 51°15.364 2°54.153 28.977884 3.326702 21.954582 -0.882377
2003-03-25 09:29:03 51°15.376 2°54.142 28.977884 3.326702 21.954582 -0.882377
2003-03-25 09:29:09 51°15.395 2°54.125 28.180405 3.326702 21.954582 -0.882377
2003-03-25 09:29:12 51°15.404 2°54.116 29.3473 3.326702 21.954582 -0.848668
2003-03-25 09:29:19 51°15.426 2°54.096 28.732629 3.326702 21.954582 -0.848668
2003-03-25 09:29:23 51°15.438 2°54.085 29.707689 3.326702 21.954582 -0.882377
2003-03-25 09:29:29 51°15.457 2°54.068 28.645706 3.326702 21.954242 -0.882377
2003-03-25 09:29:33 51°15.47 2°54.057 28.645706 3.326702 21.954242 -0.882377
2003-03-25 09:29:39 51°15.489 2°54.039 27.824471 3.326702 21.954582 -0.882377
2003-03-25 09:29:43 51°15.503 2°54.028 27.250934 3.326807 21.955349 -0.848668
2003-03-25 09:29:49 51°15.522 2°54.011 29.923807 3.326702 21.954582 -0.848668
2003-03-25 09:29:52 51°15.532 2°54.002 28.56814 3.326702 21.954242 -0.848668
2003-03-25 09:29:59 51°15.556 2°53.982 29.094428 3.326702 21.954242 -0.848668
2003-03-25 09:30:04 51°15.572 2°53.967 29.094428 3.326702 21.954242 -0.848668
2003-03-25 09:30:09 51°15.589 2°53.953 27.99234 3.326702 21.954242 -0.848668
2003-03-25 09:30:13 51°15.603 2°53.941 29.380535 3.326807 21.955009 -0.848668
2003-03-25 09:30:19 51°15.623 2°53.924 28.539941 3.326702 21.954242 -0.848668
2003-03-25 09:30:24 51°15.64 2°53.909 29.816638 3.326702 21.953902 -0.848668
2003-03-25 09:30:28 51°15.653 2°53.897 27.700876 3.326807 21.954669 -0.848668
2003-03-25 09:30:33 51°15.671 2°53.882 27.700876 3.326807 21.954669 -0.848668
2003-03-25 09:30:39 51°15.691 2°53.865 28.680868 3.326702 21.954582 -0.916087
2003-03-25 09:30:44 51°15.708 2°53.849 28.355845 3.326807 21.955009 -0.882377
2003-03-25 09:30:49 51°15.726 2°53.835 28.651454 3.326807 21.954669 -0.848668
2003-03-25 09:30:53 51°15.739 2°53.823 29.478233 3.326807 21.954669 -0.882377
2003-03-25 09:30:59 51°15.76 2°53.805 29.555541 3.326807 21.954669 -0.882377
2003-03-25 09:31:04 51°15.777 2°53.789 29.555541 3.326807 21.954669 -0.882377
2003-03-25 09:31:09 51°15.793 2°53.774 29.20751 3.326702 21.953562 -0.848668
2003-03-25 09:31:13 51°15.807 2°53.761 28.325112 3.326702 21.954242 -0.848668
2003-03-25 09:31:19 51°15.828 2°53.743 28.943398 3.326912 21.955437 -0.848668
2003-03-25 09:31:23 51°15.841 2°53.73 28.392369 3.326807 21.955009 -0.848668
2003-03-25 09:31:29 51°15.861 2°53.712 28.414029 3.326807 21.955009 -0.848668
2003-03-25 09:31:33 51°15.875 2°53.7 28.414029 3.326807 21.955009 -0.848668
2003-03-25 09:31:39 51°15.896 2°53.681 28.08835 3.326807 21.954669 -0.848668
2003-03-25 09:31:43 51°15.909 2°53.669 28.151589 3.326702 21.953902 -0.814958
2003-03-25 09:31:49 51°15.93 2°53.651 28.068513 3.326912 21.955437 -0.848668
2003-03-25 09:31:53 51°15.943 2°53.639 28.02897 3.326807 21.954669 -0.848668
2003-03-25 09:31:59 51°15.963 2°53.62 28.710199 3.326807 21.95433 -0.848668
2003-03-25 09:32:04 51°15.98 2°53.605 28.710199 3.326807 21.95433 -0.848668
2003-03-25 09:32:09 51°15.997 2°53.59 26.738824 3.326807 21.95433 -0.848668
2003-03-25 09:32:14 51°16.015 2°53.574 27.473545 3.326912 21.955437 -0.848668
2003-03-25 09:32:19 51°16.032 2°53.559 28.914874 3.326807 21.95433 -0.848668
2003-03-25 09:32:23 51°16.046 2°53.546 28.828878 3.326912 21.955437 -0.848668
2003-03-25 09:32:29 51°16.066 2°53.528 28.093055 3.326807 21.954669 -0.814958
2003-03-25 09:32:33 51°16.08 2°53.516 28.093055 3.326807 21.954669 -0.814958
2003-03-25 09:32:39 51°16.101 2°53.498 26.808155 3.326912 21.955437 -0.848668
2003-03-25 09:32:43 51°16.114 2°53.486 27.624217 3.326912 21.955437 -0.882377
2003-03-25 09:32:49 51°16.135 2°53.467 29.675094 3.326807 21.954669 -0.848668
2003-03-25 09:32:52 51°16.145 2°53.458 28.240315 3.326912 21.955097 -0.848668
2003-03-25 09:32:59 51°16.17 2°53.436 29.00449 3.326912 21.955097 -0.882377
2003-03-25 09:33:04 51°16.187 2°53.42 29.00449 3.326912 21.955097 -0.882377
2003-03-25 09:33:09 51°16.203 2°53.405 27.676715 3.326912 21.955097 -0.848668
2003-03-25 09:33:13 51°16.217 2°53.393 28.535912 3.326912 21.955097 -0.848668
2003-03-25 09:33:19 51°16.237 2°53.375 29.355378 3.326807 21.95399 -0.848668
2003-03-25 09:33:24 51°16.253 2°53.36 28.515078 3.326912 21.955097 -0.882377
2003-03-25 09:33:29 51°16.27 2°53.343 28.890278 3.326912 21.955097 -0.882377
2003-03-25 09:33:33 51°16.284 2°53.33 28.890278 3.326912 21.955097 -0.882377
2003-03-25 09:33:39 51°16.303 2°53.311 29.268994 3.326912 21.954757 -0.848668
2003-03-25 09:33:44 51°16.32 2°53.296 29.414715 3.326912 21.954757 -0.848668
2003-03-25 09:33:48 51°16.334 2°53.284 29.793113 3.326912 21.955097 -0.848668
2003-03-25 09:33:54 51°16.354 2°53.266 28.899014 3.327018 21.955525 -0.848668
2003-03-25 09:33:59 51°16.371 2°53.25 30.970009 3.326912 21.955097 -0.848668
2003-03-25 09:34:04 51°16.388 2°53.235 30.970009 3.326912 21.955097 -0.848668
2003-03-25 09:34:09 51°16.405 2°53.218 30.570276 3.327018 21.955525 -0.882377
2003-03-25 09:34:13 51°16.418 2°53.206 28.742532 3.326912 21.954757 -0.882377
2003-03-25 09:34:19 51°16.438 2°53.187 28.889812 3.326912 21.954757 -0.848668
2003-03-25 09:34:23 51°16.452 2°53.175 29.620004 3.326912 21.954757 -0.848668
2003-03-25 09:34:29 51°16.472 2°53.157 29.242553 3.326912 21.954757 -0.848668
2003-03-25 09:34:33 51°16.486 2°53.145 29.242553 3.326912 21.954757 -0.848668
2003-03-25 09:34:39 51°16.506 2°53.126 27.23102 3.326912 21.954757 -0.848668
2003-03-25 09:34:43 51°16.519 2°53.114 27.440256 3.326912 21.954418 -0.848668
2003-03-25 09:34:49 51°16.54 2°53.096 26.667768 3.327018 21.954505 -0.848668
2003-03-25 09:34:53 51°16.554 2°53.083 25.285884 3.327018 21.955525 -0.848668
2003-03-25 09:34:58 51°16.571 2°53.067 25.877094 3.327018 21.955185 -0.848668
2003-03-25 09:35:04 51°16.592 2°53.048 25.877094 3.327018 21.955185 -0.848668
2003-03-25 09:35:09 51°16.608 2°53.032 25.133745 3.327018 21.955185 -0.848668
2003-03-25 09:35:13 51°16.622 2°53.019 25.532667 3.327123 21.955952 -0.882377
2003-03-25 09:35:19 51°16.642 2°53.001 25.433543 3.326912 21.954418 -0.882377
2003-03-25 09:35:23 51°16.656 2°52.988 28.450309 3.327018 21.955525 -0.848668
2003-03-25 09:35:29 51°16.676 2°52.969 28.538934 3.326912 21.954757 -0.848668
2003-03-25 09:35:32 51°16.687 2°52.96 28.538934 3.326912 21.954757 -0.848668
2003-03-25 09:35:38 51°16.708 2°52.94 26.538868 3.327018 21.955525 -0.848668
2003-03-25 09:35:44 51°16.728 2°52.921 27.500581 3.327018 21.955185 -0.848668
2003-03-25 09:35:49 51°16.745 2°52.905 28.463958 3.327018 21.955185 -0.848668
2003-03-25 09:35:53 51°16.759 2°52.893 27.592307 3.327018 21.955185 -0.848668
2003-03-25 09:35:59 51°16.779 2°52.875 27.917831 3.327123 21.955612 -0.848668
2003-03-25 09:36:03 51°16.792 2°52.862 27.917831 3.327123 21.955612 -0.848668
2003-03-25 09:36:09 51°16.812 2°52.845 28.773812 3.327018 21.954845 -0.848668
2003-03-25 09:36:13 51°16.824 2°52.833 27.382074 3.327018 21.954845 -0.848668
2003-03-25 09:36:19 51°16.844 2°52.815 28.035707 3.327123 21.955952 -0.882377
2003-03-25 09:36:23 51°16.857 2°52.803 27.411591 3.327123 21.955612 -0.882377
2003-03-25 09:36:29 51°16.877 2°52.785 28.264367 3.327018 21.955185 -0.848668
2003-03-25 09:36:33 51°16.89 2°52.773 28.264367 3.327018 21.955185 -0.848668
2003-03-25 09:36:39 51°16.91 2°52.756 27.978278 3.327018 21.954845 -0.848668
2003-03-25 09:36:44 51°16.927 2°52.741 27.949275 3.327123 21.955273 -0.848668
2003-03-25 09:36:49 51°16.944 2°52.726 31.061056 3.327018 21.954845 -0.882377
2003-03-25 09:36:53 51°16.957 2°52.714 29.419906 3.327018 21.954845 -0.848668
2003-03-25 09:36:59 51°16.978 2°52.696 29.652552 3.327123 21.955612 -0.848668
2003-03-25 09:37:04 51°16.995 2°52.681 29.652552 3.327123 21.955612 -0.848668
2003-03-25 09:37:09 51°17.012 2°52.665 30.462649 3.327228 21.95638 -0.882377
2003-03-25 09:37:13 51°17.025 2°52.652 31.006406 3.327123 21.955612 -0.848668
2003-03-25 09:37:19 51°17.046 2°52.632 30.02966 3.327123 21.955612 -0.848668
2003-03-25 09:37:24 51°17.063 2°52.617 30.086567 3.327228 21.95604 -0.848668
2003-03-25 09:37:29 51°17.08 2°52.601 29.797783 3.327123 21.955273 -0.882377
2003-03-25 09:37:33 51°17.093 2°52.589 29.797783 3.327123 21.955273 -0.882377
2003-03-25 09:37:39 51°17.113 2°52.571 31.375249 3.327123 21.954933 -0.848668
2003-03-25 09:37:42 51°17.123 2°52.562 28.717306 3.327123 21.955273 -0.882377
2003-03-25 09:37:49 51°17.147 2°52.541 29.624083 3.327228 21.95604 -0.882377
2003-03-25 09:37:53 51°17.16 2°52.528 28.933557 3.327123 21.955273 -0.848668
2003-03-25 09:37:59 51°17.181 2°52.51 29.421826 3.327228 21.95604 -0.848668
2003-03-25 09:38:04 51°17.198 2°52.494 29.421826 3.327228 21.95604 -0.848668
2003-03-25 09:38:09 51°17.215 2°52.48 30.377941 3.327228 21.95604 -0.848668
2003-03-25 09:38:13 51°17.229 2°52.468 29.184686 3.327228 21.9557 -0.848668
2003-03-25 09:38:19 51°17.25 2°52.451 30.376501 3.327334 21.956468 -0.814958
2003-03-25 09:38:22 51°17.261 2°52.443 29.214641 3.327228 21.9557 -0.848668
2003-03-25 09:38:29 51°17.286 2°52.425 29.877487 3.327123 21.955273 -0.848668
2003-03-25 09:38:33 51°17.3 2°52.416 29.877487 3.327123 21.955273 -0.848668
2003-03-25 09:38:39 51°17.322 2°52.402 30.40469 3.327228 21.955361 -0.848668
2003-03-25 09:38:43 51°17.337 2°52.395 30.577385 3.327228 21.9557 -0.848668
2003-03-25 09:38:49 51°17.358 2°52.382 30.979554 3.327228 21.955361 -0.882377
2003-03-25 09:38:53 51°17.373 2°52.374 30.951194 3.327123 21.954933 -0.848668
2003-03-25 09:38:59 51°17.395 2°52.363 29.568069 3.327228 21.9557 -0.848668
2003-03-25 09:39:03 51°17.41 2°52.355 29.568069 3.327228 21.9557 -0.848668
2003-03-25 09:39:09 51°17.432 2°52.346 30.920453 3.327123 21.954593 -0.882377
2003-03-25 09:39:13 51°17.447 2°52.338 29.97211 3.327228 21.955361 -0.882377
2003-03-25 09:39:19 51°17.469 2°52.331 30.662186 3.327228 21.955021 -0.848668
2003-03-25 09:39:23 51°17.484 2°52.326 30.289201 3.327123 21.954593 -0.848668
2003-03-25 09:39:29 51°17.507 2°52.321 29.683527 3.327334 21.956128 -0.848668
2003-03-25 09:39:34 51°17.525 2°52.315 29.683527 3.327334 21.956128 -0.848668
2003-03-25 09:39:38 51°17.541 2°52.312 30.233748 3.327123 21.954593 -0.848668
2003-03-25 09:39:44 51°17.563 2°52.307 30.894233 3.327228 21.955361 -0.848668
2003-03-25 09:39:49 51°17.582 2°52.304 30.549925 3.327334 21.956128 -0.848668
2003-03-25 09:39:54 51°17.601 2°52.302 30.235049 3.327228 21.955021 -0.848668
2003-03-25 09:39:59 51°17.62 2°52.3 30.781336 3.327228 21.955361 -0.882377
2003-03-25 09:40:03 51°17.635 2°52.299 30.781336 3.327228 21.955361 -0.882377
2003-03-25 09:40:09 51°17.658 2°52.297 30.474362 3.327228 21.955021 -0.848668
2003-03-25 09:40:13 51°17.673 2°52.297 30.581587 3.327228 21.954681 -0.848668
2003-03-25 09:40:19 51°17.696 2°52.295 30.891722 3.327334 21.955448 -0.882377
2003-03-25 09:40:24 51°17.715 2°52.295 30.352236 3.327228 21.955021 -0.814958
2003-03-25 09:40:29 51°17.734 2°52.295 29.308994 3.327439 21.956216 -0.814958
2003-03-25 09:40:33 51°17.749 2°52.294 29.308994 3.327439 21.956216 -0.814958
2003-03-25 09:40:39 51°17.772 2°52.294 30.869539 3.327334 21.955788 -0.848668
2003-03-25 09:40:44 51°17.791 2°52.294 31.298799 3.327228 21.955021 -0.848668
2003-03-25 09:40:48 51°17.806 2°52.294 30.985057 3.327228 21.955021 -0.848668
2003-03-25 09:40:54 51°17.829 2°52.293 30.239481 3.327334 21.955448 -0.848668
2003-03-25 09:40:59 51°17.847 2°52.292 31.014728 3.327334 21.955788 -0.848668
2003-03-25 09:41:04 51°17.867 2°52.292 31.014728 3.327334 21.955788 -0.848668
2003-03-25 09:41:09 51°17.886 2°52.292 30.181809 3.327439 21.956216 -0.848668
2003-03-25 09:41:13 51°17.901 2°52.293 31.123317 3.327228 21.954002 -0.848668
2003-03-25 09:41:19 51°17.924 2°52.295 30.545126 3.327334 21.955109 -0.882377
2003-03-25 09:41:23 51°17.939 2°52.298 30.74871 3.327439 21.955536 -0.848668
2003-03-25 09:41:29 51°17.961 2°52.305 31.409895 3.327439 21.955876 -0.848668
2003-03-25 09:41:32 51°17.972 2°52.308 31.409895 3.327439 21.955876 -0.848668
2003-03-25 09:41:39 51°17.997 2°52.319 31.627392 3.327334 21.955109 -0.848668
2003-03-25 09:41:44 51°18.015 2°52.33 30.747417 3.327439 21.955876 -0.848668
2003-03-25 09:41:49 51°18.032 2°52.344 30.525645 3.327439 21.955876 -0.848668
2003-03-25 09:41:53 51°18.045 2°52.354 30.355046 3.327334 21.955448 -0.848668
2003-03-25 09:41:59 51°18.064 2°52.372 31.237896 3.327544 21.956304 -0.882377
2003-03-25 09:42:03 51°18.077 2°52.384 31.237896 3.327544 21.956304 -0.882377
2003-03-25 09:42:09 51°18.095 2°52.404 29.340573 3.327439 21.955536 -0.848668
2003-03-25 09:42:13 51°18.107 2°52.418 31.527437 3.327439 21.955876 -0.848668
2003-03-25 09:42:19 51°18.124 2°52.44 30.856038 3.327439 21.955876 -0.848668
2003-03-25 09:42:23 51°18.135 2°52.456 31.013753 3.327439 21.955197 -0.848668
2003-03-25 09:42:29 51°18.15 2°52.481 31.944711 3.327439 21.956216 -0.882377
2003-03-25 09:42:33 51°18.161 2°52.498 31.944711 3.327439 21.956216 -0.882377
2003-03-25 09:42:39 51°18.175 2°52.525 30.214046 3.327439 21.955876 -0.848668
2003-03-25 09:42:44 51°18.187 2°52.548 31.518617 3.327334 21.955109 -0.882377
2003-03-25 09:42:49 51°18.198 2°52.571 30.235471 3.327439 21.955876 -0.848668
2003-03-25 09:42:53 51°18.206 2°52.591 30.55525 3.327544 21.956643 -0.814958
2003-03-25 09:42:59 51°18.218 2°52.621 28.219616 3.327439 21.955876 -0.882377
2003-03-25 09:43:03 51°18.226 2°52.641 28.219616 3.327439 21.955876 -0.882377
2003-03-25 09:43:09 51°18.237 2°52.671 30.119337 3.327439 21.955197 -0.848668
2003-03-25 09:43:13 51°18.244 2°52.691 29.666624 3.327334 21.954429 -0.848668
2003-03-25 09:43:19 51°18.255 2°52.722 30.303295 3.327439 21.955536 -0.848668
2003-03-25 09:43:23 51°18.262 2°52.743 28.044326 3.327544 21.955964 -0.882377
2003-03-25 09:43:29 51°18.272 2°52.775 30.044155 3.327544 21.955964 -0.882377
2003-03-25 09:43:33 51°18.278 2°52.796 30.044155 3.327544 21.955964 -0.882377
2003-03-25 09:43:39 51°18.287 2°52.827 29.717677 3.327544 21.955964 -0.848668
2003-03-25 09:43:43 51°18.293 2°52.849 31.861837 3.327544 21.956304 -0.848668
2003-03-25 09:43:49 51°18.302 2°52.88 28.666503 3.327439 21.955197 -0.848668
2003-03-25 09:43:53 51°18.309 2°52.901 31.307887 3.327439 21.955536 -0.814958
2003-03-25 09:43:59 51°18.319 2°52.932 31.90153 3.327544 21.955964 -0.882377
2003-03-25 09:44:04 51°18.327 2°52.958 31.90153 3.327544 21.955964 -0.882377
2003-03-25 09:44:09 51°18.336 2°52.984 28.263645 3.327544 21.955624 -0.848668
2003-03-25 09:44:13 51°18.343 2°53.005 29.729966 3.327544 21.955624 -0.848668
2003-03-25 09:44:19 51°18.354 2°53.035 30.039641 3.327544 21.955284 -0.882377
2003-03-25 09:44:23 51°18.361 2°53.055 29.81013 3.327544 21.955624 -0.814958
2003-03-25 09:44:29 51°18.372 2°53.086 29.665312 3.32765 21.956391 -0.848668
2003-03-25 09:44:32 51°18.378 2°53.102 29.665312 3.32765 21.956391 -0.848668
2003-03-25 09:44:39 51°18.391 2°53.137 28.145911 3.327544 21.955284 -0.848668
2003-03-25 09:44:43 51°18.398 2°53.157 29.985487 3.32765 21.956391 -0.814958
2003-03-25 09:44:49 51°18.409 2°53.187 28.559581 3.327544 21.955624 -0.848668
2003-03-25 09:44:53 51°18.416 2°53.208 28.052402 3.32765 21.956052 -0.848668
2003-03-25 09:44:59 51°18.427 2°53.239 30.571851 3.32765 21.956391 -0.848668
2003-03-25 09:45:03 51°18.435 2°53.26 30.571851 3.32765 21.956391 -0.848668
2003-03-25 09:45:09 51°18.446 2°53.29 30.101016 3.32765 21.956391 -0.848668
2003-03-25 09:45:13 51°18.454 2°53.31 28.721684 3.32765 21.956052 -0.848668
2003-03-25 09:45:19 51°18.465 2°53.34 28.734854 3.32765 21.955712 -0.848668
2003-03-25 09:45:24 51°18.474 2°53.365 28.61732 3.32765 21.956052 -0.848668
2003-03-25 09:45:29 51°18.484 2°53.391 29.638549 3.32765 21.956052 -0.848668
2003-03-25 09:45:33 51°18.492 2°53.411 29.638549 3.32765 21.956052 -0.848668
2003-03-25 09:45:39 51°18.503 2°53.441 30.314892 3.327755 21.95614 -0.882377
2003-03-25 09:45:43 51°18.51 2°53.461 31.219911 3.327755 21.956479 -0.848668
2003-03-25 09:45:49 51°18.52 2°53.492 30.394757 3.32765 21.955712 -0.848668
2003-03-25 09:45:54 51°18.529 2°53.517 30.087271 3.32765 21.955712 -0.882377
2003-03-25 09:45:59 51°18.538 2°53.542 29.216246 3.327755 21.956479 -0.882377
2003-03-25 09:46:03 51°18.544 2°53.564 29.216246 3.327755 21.956479 -0.882377
2003-03-25 09:46:09 51°18.555 2°53.594 28.73959 3.327755 21.956819 -0.848668
2003-03-25 09:46:13 51°18.563 2°53.615 30.453285 3.327755 21.956479 -0.848668
2003-03-25 09:46:19 51°18.574 2°53.645 28.688265 3.32765 21.955372 -0.848668
2003-03-25 09:46:24 51°18.583 2°53.67 28.984286 3.327755 21.95614 -0.882377
2003-03-25 09:46:29 51°18.592 2°53.696 30.369549 3.32786 21.956907 -0.882377
2003-03-25 09:46:33 51°18.6 2°53.717 30.369549 3.32786 21.956907 -0.882377
2003-03-25 09:46:39 51°18.612 2°53.747 29.414608 3.32765 21.955712 -0.882377
2003-03-25 09:46:44 51°18.622 2°53.773 31.011037 3.32765 21.955372 -0.848668
2003-03-25 09:46:49 51°18.632 2°53.798 30.715825 3.327755 21.9558 -0.848668
2003-03-25 09:46:53 51°18.64 2°53.819 27.865103 3.327755 21.9558 -0.848668
2003-03-25 09:46:59 51°18.651 2°53.85 30.715196 3.327755 21.9558 -0.848668
2003-03-25 09:47:04 51°18.659 2°53.875 30.715196 3.327755 21.9558 -0.848668
2003-03-25 09:47:08 51°18.666 2°53.896 31.241056 3.327755 21.956479 -0.848668
2003-03-25 09:47:14 51°18.677 2°53.928 30.170544 3.32786 21.956567 -0.882377
2003-03-25 09:47:19 51°18.685 2°53.953 29.911373 3.32786 21.956567 -0.882377
2003-03-25 09:47:24 51°18.694 2°53.978 28.333013 3.32786 21.956567 -0.814958
2003-03-25 09:47:29 51°18.703 2°54.003 28.889705 3.32786 21.956907 -0.882377
2003-03-25 09:47:33 51°18.71 2°54.024 28.889705 3.32786 21.956907 -0.882377
2003-03-25 09:47:39 51°18.721 2°54.055 28.126886 3.32786 21.956567 -0.882377
2003-03-25 09:47:43 51°18.729 2°54.075 32.053606 3.327965 21.957334 -0.848668
2003-03-25 09:47:49 51°18.74 2°54.105 30.026062 3.327755 21.9558 -0.848668
2003-03-25 09:47:53 51°18.747 2°54.125 31.442414 3.32786 21.956567 -0.882377
2003-03-25 09:47:59 51°18.76 2°54.154 27.623197 3.32786 21.956907 -0.848668
2003-03-25 09:48:03 51°18.768 2°54.174 27.623197 3.32786 21.956907 -0.848668
2003-03-25 09:48:09 51°18.78 2°54.203 27.205423 3.32786 21.956907 -0.848668
2003-03-25 09:48:13 51°18.789 2°54.222 30.776482 3.32786 21.956567 -0.848668
2003-03-25 09:48:18 51°18.799 2°54.246 27.324724 3.327965 21.956995 -0.814958
2003-03-25 09:48:24 51°18.812 2°54.275 30.176106 3.32786 21.956227 -0.848668
2003-03-25 09:48:29 51°18.823 2°54.297 30.264486 3.32786 21.956567 -0.848668
2003-03-25 09:48:33 51°18.832 2°54.316 30.264486 3.32786 21.956567 -0.848668
2003-03-25 09:48:39 51°18.845 2°54.344 28.576699 3.32786 21.956227 -0.814958
2003-03-25 09:48:43 51°18.854 2°54.363 31.266081 3.327965 21.956655 -0.848668
2003-03-25 09:48:49 51°18.867 2°54.391 29.570234 3.327965 21.956655 -0.848668
2003-03-25 09:48:54 51°18.879 2°54.414 28.28296 3.327965 21.956995 -0.848668
2003-03-25 09:48:58 51°18.888 2°54.433 28.638233 3.327965 21.956995 -0.882377
2003-03-25 09:49:04 51°18.901 2°54.461 28.638233 3.327965 21.956995 -0.882377
2003-03-25 09:49:09 51°18.912 2°54.484 27.719792 3.327965 21.956995 -0.848668
2003-03-25 09:49:13 51°18.921 2°54.503 28.381482 3.327965 21.956655 -0.848668
2003-03-25 09:49:19 51°18.934 2°54.531 29.951952 3.327965 21.956655 -0.848668
2003-03-25 09:49:23 51°18.943 2°54.55 27.303806 3.327965 21.956655 -0.848668
2003-03-25 09:49:29 51°18.957 2°54.578 29.315261 3.327965 21.956655 -0.882377
2003-03-25 09:49:32 51°18.963 2°54.592 29.315261 3.327965 21.956655 -0.882377
2003-03-25 09:49:39 51°18.979 2°54.626 29.715021 3.328071 21.957082 -0.848668
2003-03-25 09:49:42 51°18.985 2°54.64 30.270288 3.328071 21.957422 -0.848668
2003-03-25 09:49:49 51°19 2°54.674 29.335767 3.328071 21.957422 -0.848668
2003-03-25 09:49:53 51°19.009 2°54.692 27.962183 3.328071 21.957082 -0.882377
2003-03-25 09:49:58 51°19.02 2°54.716 30.665964 3.328071 21.957762 -0.848668
2003-03-25 09:50:01 51°19.027 2°54.729 30.665964 3.328071 21.957762 -0.848668
2003-03-25 09:50:09 51°19.044 2°54.767 30.990491 3.328071 21.957082 -0.848668
2003-03-25 09:50:14 51°19.056 2°54.79 29.348759 3.328071 21.957422 -0.848668
2003-03-25 09:50:19 51°19.067 2°54.812 30.82278 3.328071 21.957422 -0.848668
2003-03-25 09:50:24 51°19.079 2°54.834 29.260407 3.328176 21.95785 -0.848668
2003-03-25 09:50:29 51°19.093 2°54.854 27.944996 3.327965 21.956995 -0.848668
2003-03-25 09:50:34 51°19.107 2°54.875 27.944996 3.327965 21.956995 -0.848668
2003-03-25 09:50:39 51°19.121 2°54.893 28.468496 3.328071 21.957762 -0.848668
2003-03-25 09:50:43 51°19.132 2°54.907 27.99687 3.328176 21.958189 -0.848668
2003-03-25 09:50:50 51°19.153 2°54.93 29.689834 3.327965 21.955976 -0.848668
2003-03-25 09:50:54 51°19.166 2°54.943 28.048599 3.328176 21.95785 -0.848668
2003-03-25 09:51:00 51°19.184 2°54.963 30.242225 3.328281 21.958277 -0.848668
2003-03-25 09:51:04 51°19.197 2°54.976 30.242225 3.328281 21.958277 -0.848668
2003-03-25 09:51:09 51°19.214 2°54.991 27.718519 3.328071 21.956743 -0.848668
2003-03-25 09:51:14 51°19.23 2°55.006 30.268494 3.328281 21.958617 -0.882377
2003-03-25 09:51:20 51°19.249 2°55.025 29.897135 3.328176 21.95717 -0.848668
2003-03-25 09:51:24 51°19.262 2°55.036 29.641102 3.328176 21.95751 -0.848668
2003-03-25 09:51:30 51°19.281 2°55.054 32.198799 3.328281 21.958277 -0.882377
2003-03-25 09:51:34 51°19.294 2°55.066 32.198799 3.328281 21.958277 -0.882377
2003-03-25 09:51:40 51°19.314 2°55.084 31.022318 3.328071 21.956403 -0.882377
2003-03-25 09:51:44 51°19.326 2°55.095 30.127933 3.328176 21.95751 -0.848668
2003-03-25 09:51:50 51°19.346 2°55.113 29.37196 3.328281 21.957598 -0.814958
2003-03-25 09:51:54 51°19.359 2°55.125 30.35624 3.328281 21.957598 -0.848668
2003-03-25 09:52:00 51°19.378 2°55.144 27.636926 3.328176 21.95717 -0.848668
2003-03-25 09:52:04 51°19.391 2°55.156 27.636926 3.328176 21.95717 -0.848668
2003-03-25 09:52:10 51°19.41 2°55.175 31.446188 3.328281 21.957598 -0.848668
2003-03-25 09:52:14 51°19.423 2°55.187 29.196456 3.328281 21.957258 -0.848668
2003-03-25 09:52:20 51°19.442 2°55.205 28.003972 3.328281 21.957258 -0.848668
2003-03-25 09:52:25 51°19.458 2°55.219 29.113388 3.328281 21.957258 -0.848668
2003-03-25 09:52:29 51°19.472 2°55.23 30.428798 3.328281 21.958277 -0.882377
2003-03-25 09:52:34 51°19.489 2°55.243 30.428798 3.328281 21.958277 -0.882377
2003-03-25 09:52:40 51°19.509 2°55.258 30.392756 3.328387 21.958365 -0.848668
2003-03-25 09:52:44 51°19.523 2°55.266 32.296482 3.328176 21.95717 -0.848668
2003-03-25 09:52:49 51°19.541 2°55.278 27.93952 3.328281 21.957598 -0.882377
2003-03-25 09:52:54 51°19.558 2°55.289 32.267783 3.328387 21.958365 -0.848668
2003-03-25 09:53:00 51°19.579 2°55.301 32.762528 3.328281 21.957258 -0.882377
2003-03-25 09:53:04 51°19.593 2°55.31 32.762528 3.328281 21.957258 -0.882377
2003-03-25 09:53:10 51°19.614 2°55.322 29.205656 3.328387 21.958025 -0.848668
2003-03-25 09:53:15 51°19.632 2°55.332 30.720089 3.328387 21.957686 -0.848668
2003-03-25 09:53:20 51°19.65 2°55.342 29.245297 3.328387 21.957686 -0.848668
2003-03-25 09:53:25 51°19.668 2°55.351 29.585243 3.328281 21.956918 -0.848668
2003-03-25 09:53:30 51°19.686 2°55.357 31.024267 3.328387 21.958365 -0.814958
2003-03-25 09:53:34 51°19.701 2°55.36 31.024267 3.328387 21.958365 -0.814958
2003-03-25 09:53:40 51°19.724 2°55.361 32.493697 3.328492 21.959811 -0.848668
2003-03-25 09:53:44 51°19.739 2°55.36 30.280307 3.328281 21.957937 -0.848668
2003-03-25 09:53:50 51°19.761 2°55.358 31.252788 3.328387 21.958365 -0.882377
2003-03-25 09:53:53 51°19.772 2°55.357 30.912679 3.328492 21.958453 -0.848668
2003-03-25 09:54:00 51°19.799 2°55.352 31.197476 3.328387 21.957006 -0.848668
2003-03-25 09:54:05 51°19.818 2°55.349 31.197476 3.328387 21.957006 -0.848668
2003-03-25 09:54:10 51°19.836 2°55.344 30.168361 3.328492 21.957773 -0.848668
2003-03-25 09:54:14 51°19.851 2°55.341 28.602404 3.328387 21.957006 -0.848668
2003-03-25 09:54:20 51°19.874 2°55.336 27.939738 3.328387 21.957006 -0.848668
2003-03-25 09:54:25 51°19.893 2°55.334 28.853924 3.328492 21.957773 -0.848668
2003-03-25 09:54:30 51°19.912 2°55.331 27.227468 3.328387 21.957006 -0.848668
2003-03-25 09:54:34 51°19.927 2°55.329 27.227468 3.328387 21.957006 -0.848668
2003-03-25 09:54:38 51°19.943 2°55.326 27.736012 3.328492 21.957773 -0.848668
2003-03-25 09:54:45 51°19.97 2°55.323 28.713393 3.328387 21.957346 -0.848668
2003-03-25 09:54:50 51°19.989 2°55.321 28.772772 3.328387 21.957686 -0.848668
2003-03-25 09:54:54 51°20.005 2°55.32 28.863023 3.328492 21.958113 -0.848668
2003-03-25 09:55:00 51°20.028 2°55.316 28.657093 3.328597 21.95888 -0.848668
2003-03-25 09:55:05 51°20.048 2°55.313 28.657093 3.328597 21.95888 -0.848668
2003-03-25 09:55:10 51°20.067 2°55.312 28.223879 3.328492 21.957773 -0.848668
2003-03-25 09:55:14 51°20.082 2°55.311 27.739867 3.328597 21.958201 -0.882377
2003-03-25 09:55:20 51°20.105 2°55.308 28.099026 3.328492 21.957773 -0.848668
2003-03-25 09:55:24 51°20.12 2°55.305 28.214882 3.328703 21.958968 -0.848668
2003-03-25 09:55:30 51°20.143 2°55.303 28.19067 3.328597 21.958201 -0.848668
2003-03-25 09:55:34 51°20.158 2°55.302 28.19067 3.328597 21.958201 -0.848668
2003-03-25 09:55:40 51°20.182 2°55.301 28.748918 3.328492 21.957773 -0.848668
2003-03-25 09:55:44 51°20.197 2°55.299 28.01169 3.328597 21.95854 -0.848668
2003-03-25 09:55:50 51°20.219 2°55.296 28.514574 3.328597 21.958201 -0.848668
2003-03-25 09:55:54 51°20.235 2°55.293 27.684502 3.328597 21.95854 -0.848668
2003-03-25 09:56:00 51°20.257 2°55.29 26.846439 3.328597 21.958201 -0.848668
2003-03-25 09:56:04 51°20.272 2°55.289 26.846439 3.328597 21.958201 -0.848668
2003-03-25 09:56:10 51°20.295 2°55.286 28.986861 3.328597 21.95854 -0.848668
2003-03-25 09:56:14 51°20.311 2°55.284 28.399073 3.328703 21.959308 -0.882377
2003-03-25 09:56:20 51°20.334 2°55.282 27.86347 3.328597 21.958201 -0.848668
2003-03-25 09:56:25 51°20.353 2°55.279 27.172454 3.328597 21.958201 -0.848668
2003-03-25 09:56:30 51°20.372 2°55.277 29.543934 3.328597 21.957861 -0.848668
2003-03-25 09:56:34 51°20.387 2°55.275 29.543934 3.328597 21.957861 -0.848668
2003-03-25 09:56:40 51°20.41 2°55.272 28.192586 3.328597 21.958201 -0.848668
2003-03-25 09:56:45 51°20.429 2°55.269 29.456343 3.328808 21.959395 -0.882377
2003-03-25 09:56:49 51°20.444 2°55.268 29.660031 3.328703 21.958289 -0.848668
2003-03-25 09:56:54 51°20.464 2°55.266 27.480989 3.328597 21.957861 -0.848668
2003-03-25 09:57:00 51°20.487 2°55.264 28.403146 3.328703 21.957949 -0.848668
2003-03-25 09:57:05 51°20.506 2°55.262 28.403146 3.328703 21.957949 -0.848668
2003-03-25 09:57:10 51°20.525 2°55.26 27.062009 3.328808 21.959056 -0.814958
2003-03-25 09:57:14 51°20.54 2°55.258 28.463706 3.328808 21.959056 -0.848668
2003-03-25 09:57:20 51°20.563 2°55.255 27.833841 3.328703 21.958289 -0.848668
2003-03-25 09:57:24 51°20.579 2°55.254 26.553279 3.328703 21.958289 -0.848668
2003-03-25 09:57:30 51°20.602 2°55.251 27.362122 3.328808 21.959395 -0.848668
2003-03-25 09:57:34 51°20.618 2°55.25 27.362122 3.328808 21.959395 -0.848668
2003-03-25 09:57:38 51°20.633 2°55.249 27.573395 3.328703 21.958289 -0.814958
2003-03-25 09:57:43 51°20.653 2°55.246 28.022123 3.328703 21.958289 -0.848668
2003-03-25 09:57:49 51°20.676 2°55.245 28.317535 3.328703 21.958289 -0.882377
2003-03-25 09:57:53 51°20.691 2°55.242 28.817803 3.328703 21.957949 -0.848668
2003-03-25 09:57:58 51°20.71 2°55.24 29.434839 3.328808 21.958716 -0.882377
2003-03-25 09:58:04 51°20.734 2°55.237 29.434839 3.328808 21.958716 -0.882377
2003-03-25 09:58:09 51°20.752 2°55.233 27.696328 3.328913 21.959823 -0.848668
2003-03-25 09:58:14 51°20.771 2°55.231 29.445681 3.328808 21.958716 -0.848668
2003-03-25 09:58:19 51°20.791 2°55.229 29.026618 3.328913 21.959144 -0.848668
2003-03-25 09:58:23 51°20.807 2°55.228 27.936438 3.328808 21.958377 -0.814958
2003-03-25 09:58:29 51°20.829 2°55.226 29.206334 3.328808 21.958377 -0.848668
2003-03-25 09:58:33 51°20.845 2°55.225 29.206334 3.328808 21.958377 -0.848668
2003-03-25 09:58:38 51°20.864 2°55.223 29.091106 3.328808 21.958377 -0.848668
2003-03-25 09:58:44 51°20.888 2°55.221 30.240748 3.328808 21.958377 -0.848668
2003-03-25 09:58:49 51°20.907 2°55.219 28.72983 3.328913 21.958804 -0.848668
2003-03-25 09:58:53 51°20.922 2°55.217 28.373189 3.328808 21.958377 -0.848668
2003-03-25 09:58:59 51°20.946 2°55.215 28.783028 3.328913 21.958804 -0.814958
2003-03-25 09:59:04 51°20.965 2°55.213 28.783028 3.328913 21.958804 -0.814958
2003-03-25 09:59:09 51°20.985 2°55.212 30.760728 3.328913 21.958804 -0.848668
2003-03-25 09:59:14 51°21.004 2°55.21 28.79296 3.328913 21.959144 -0.848668
2003-03-25 09:59:19 51°21.024 2°55.209 27.048871 3.328913 21.958804 -0.848668
2003-03-25 09:59:24 51°21.043 2°55.207 25.549411 3.328913 21.958804 -0.882377
2003-03-25 09:59:29 51°21.063 2°55.206 26.776997 3.328913 21.958464 -0.882377
2003-03-25 09:59:33 51°21.078 2°55.203 26.776997 3.328913 21.958464 -0.882377
2003-03-25 09:59:38 51°21.097 2°55.201 26.233795 3.328913 21.958464 -0.848668
2003-03-25 09:59:44 51°21.12 2°55.199 25.328988 3.329019 21.958892 -0.848668
2003-03-25 09:59:49 51°21.14 2°55.197 27.283905 3.328913 21.958125 -0.848668
2003-03-25 09:59:54 51°21.159 2°55.196 29.060602 3.328913 21.958464 -0.848668
2003-03-25 09:59:59 51°21.178 2°55.194 30.020101 3.329019 21.958892 -0.882377
2003-03-25 10:00:04 51°21.197 2°55.192 30.020101 3.329019 21.958892 -0.882377
2003-03-25 10:00:09 51°21.217 2°55.19 29.120706 3.329019 21.959231 -0.882377
2003-03-25 10:00:14 51°21.236 2°55.188 30.281468 3.329019 21.959231 -0.848668
2003-03-25 10:00:19 51°21.255 2°55.187 28.118384 3.329124 21.959659 -0.848668
2003-03-25 10:00:25 51°21.279 2°55.185 29.218028 3.329124 21.959659 -0.882377
2003-03-25 10:00:29 51°21.294 2°55.184 29.065353 3.329124 21.959659 -0.882377
2003-03-25 10:00:34 51°21.313 2°55.181 29.065353 3.329124 21.959659 -0.882377
2003-03-25 10:00:40 51°21.336 2°55.178 29.296743 3.329019 21.958892 -0.848668
2003-03-25 10:00:44 51°21.352 2°55.176 30.023311 3.329124 21.959659 -0.814958
2003-03-25 10:00:48 51°21.367 2°55.174 28.475013 3.329124 21.959319 -0.882377
2003-03-25 10:00:54 51°21.39 2°55.172 28.5471 3.329124 21.959319 -0.848668
2003-03-25 10:00:59 51°21.41 2°55.17 29.505088 3.329124 21.959319 -0.848668
2003-03-25 10:01:04 51°21.429 2°55.168 29.505088 3.329124 21.959319 -0.848668
2003-03-25 10:01:09 51°21.449 2°55.166 30.027261 3.329124 21.959659 -0.848668
2003-03-25 10:01:14 51°21.468 2°55.164 27.947788 3.329124 21.959319 -0.848668
2003-03-25 10:01:18 51°21.484 2°55.162 28.651633 3.329229 21.960086 -0.848668
2003-03-25 10:01:24 51°21.507 2°55.16 27.623015 3.329124 21.95898 -0.848668
2003-03-25 10:01:29 51°21.527 2°55.158 28.537746 3.329124 21.95898 -0.848668
2003-03-25 10:01:34 51°21.546 2°55.156 28.537746 3.329124 21.95898 -0.848668
2003-03-25 10:01:39 51°21.565 2°55.154 28.769831 3.329124 21.95898 -0.814958
2003-03-25 10:01:44 51°21.585 2°55.152 27.536724 3.329229 21.960086 -0.882377
2003-03-25 10:01:50 51°21.608 2°55.15 29.479121 3.329229 21.960086 -0.848668
2003-03-25 10:01:54 51°21.623 2°55.149 29.309884 3.329229 21.959407 -0.848668
2003-03-25 10:01:58 51°21.639 2°55.147 29.075034 3.329229 21.959407 -0.848668
2003-03-25 10:02:04 51°21.662 2°55.144 29.075034 3.329229 21.959407 -0.848668
2003-03-25 10:02:09 51°21.682 2°55.143 29.654254 3.329229 21.959747 -0.848668
2003-03-25 10:02:14 51°21.701 2°55.141 28.044326 3.329229 21.959407 -0.848668
2003-03-25 10:02:19 51°21.72 2°55.139 28.90306 3.329229 21.959407 -0.882377
2003-03-25 10:02:24 51°21.74 2°55.138 30.203067 3.329229 21.959067 -0.848668
2003-03-25 10:02:28 51°21.756 2°55.137 28.668694 3.329229 21.959067 -0.848668
2003-03-25 10:02:34 51°21.779 2°55.135 28.668694 3.329229 21.959067 -0.848668
2003-03-25 10:02:38 51°21.795 2°55.134 29.020863 3.329229 21.959407 -0.882377
2003-03-25 10:02:45 51°21.822 2°55.131 28.08017 3.329334 21.959834 -0.848668
2003-03-25 10:02:49 51°21.838 2°55.13 28.818843 3.329334 21.959834 -0.848668
2003-03-25 10:02:53 51°21.853 2°55.129 28.109267 3.329334 21.959834 -0.848668
2003-03-25 10:02:58 51°21.873 2°55.127 28.079229 3.329334 21.959834 -0.848668
2003-03-25 10:03:04 51°21.896 2°55.125 28.079229 3.329334 21.959834 -0.848668
2003-03-25 10:03:09 51°21.916 2°55.124 29.725468 3.329334 21.959834 -0.848668
2003-03-25 10:03:14 51°21.936 2°55.123 29.43171 3.32944 21.960262 -0.848668
2003-03-25 10:03:18 51°21.952 2°55.122 29.520324 3.329229 21.959067 -0.848668
2003-03-25 10:03:24 51°21.975 2°55.119 29.340252 3.329334 21.959495 -0.848668
2003-03-25 10:03:29 51°21.995 2°55.117 28.085744 3.329334 21.959495 -0.848668
2003-03-25 10:03:34 51°22.014 2°55.116 28.085744 3.329334 21.959495 -0.848668
2003-03-25 10:03:39 51°22.034 2°55.113 29.583788 3.32944 21.960262 -0.848668
2003-03-25 10:03:44 51°22.053 2°55.112 29.118529 3.32944 21.959922 -0.882377
2003-03-25 10:03:49 51°22.073 2°55.11 30.418131 3.32944 21.959922 -0.848668
2003-03-25 10:03:54 51°22.092 2°55.111 30.294017 3.32944 21.959922 -0.848668
2003-03-25 10:04:00 51°22.116 2°55.114 29.312768 3.32965 21.960777 -0.882377
2003-03-25 10:04:05 51°22.135 2°55.118 29.312768 3.32965 21.960777 -0.882377
2003-03-25 10:04:10 51°22.155 2°55.122 31.046649 3.329334 21.958816 -0.848668
2003-03-25 10:04:14 51°22.17 2°55.126 29.664497 3.32944 21.959922 -0.848668
2003-03-25 10:04:20 51°22.193 2°55.131 29.23546 3.32944 21.959583 -0.882377
2003-03-25 10:04:25 51°22.212 2°55.138 31.029768 3.329545 21.96035 -0.848668
2003-03-25 10:04:30 51°22.231 2°55.144 29.063281 3.329545 21.960689 -0.848668
2003-03-25 10:04:35 51°22.25 2°55.152 29.063281 3.329545 21.960689 -0.848668
2003-03-25 10:04:40 51°22.269 2°55.159 29.958837 3.329545 21.960689 -0.848668
2003-03-25 10:04:45 51°22.287 2°55.167 28.682663 3.32944 21.959583 -0.848668
2003-03-25 10:04:50 51°22.306 2°55.175 29.127167 3.32944 21.959583 -0.882377
2003-03-25 10:04:54 51°22.321 2°55.181 28.921209 3.329545 21.96035 -0.848668
2003-03-25 10:05:00 51°22.344 2°55.189 29.058387 3.32944 21.959583 -0.848668
2003-03-25 10:05:05 51°22.363 2°55.196 29.058387 3.32944 21.959583 -0.848668
2003-03-25 10:05:10 51°22.381 2°55.203 30.937742 3.329545 21.96001 -0.848668
2003-03-25 10:05:14 51°22.397 2°55.209 31.281939 3.32965 21.961116 -0.848668
2003-03-25 10:05:20 51°22.42 2°55.218 29.341712 3.329545 21.96001 -0.882377
2003-03-25 10:05:25 51°22.438 2°55.225 30.463596 3.32965 21.960777 -0.848668
2003-03-25 10:05:30 51°22.457 2°55.232 32.009764 3.329545 21.95967 -0.848668
2003-03-25 10:05:34 51°22.472 2°55.238 32.009764 3.329545 21.95967 -0.848668
2003-03-25 10:05:40 51°22.495 2°55.246 30.634163 3.329545 21.95967 -0.848668
2003-03-25 10:05:45 51°22.514 2°55.253 31.513325 3.329756 21.960865 -0.848668
2003-03-25 10:05:50 51°22.533 2°55.261 31.002506 3.329545 21.96001 -0.848668
2003-03-25 10:05:54 51°22.548 2°55.266 31.2405 3.32965 21.960437 -0.848668
2003-03-25 10:06:00 51°22.571 2°55.274 29.937828 3.32965 21.960437 -0.848668
2003-03-25 10:06:05 51°22.59 2°55.281 29.937828 3.32965 21.960437 -0.848668
2003-03-25 10:06:10 51°22.609 2°55.289 31.570379 3.329756 21.961204 -0.848668
2003-03-25 10:06:14 51°22.624 2°55.294 31.827222 3.32965 21.960437 -0.882377
2003-03-25 10:06:20 51°22.647 2°55.302 30.740394 3.32965 21.960098 -0.848668
2003-03-25 10:06:25 51°22.666 2°55.309 32.365036 3.32965 21.960098 -0.848668
2003-03-25 10:06:30 51°22.685 2°55.315 31.062378 3.329756 21.960865 -0.848668
2003-03-25 10:06:34 51°22.7 2°55.321 31.062378 3.329756 21.960865 -0.848668
2003-03-25 10:06:40 51°22.723 2°55.329 30.978265 3.32965 21.960098 -0.848668
2003-03-25 10:06:45 51°22.741 2°55.336 30.407252 3.329756 21.960865 -0.848668
2003-03-25 10:06:51 51°22.764 2°55.344 31.775702 3.329861 21.961292 -0.882377
2003-03-25 10:06:55 51°22.779 2°55.349 30.921743 3.32965 21.959758 -0.848668
2003-03-25 10:06:59 51°22.794 2°55.355 31.268128 3.329756 21.960186 -0.882377
2003-03-25 10:07:05 51°22.817 2°55.363 31.268128 3.329756 21.960186 -0.882377
2003-03-25 10:07:10 51°22.836 2°55.369 31.015668 3.329756 21.960186 -0.848668
2003-03-25 10:07:15 51°22.854 2°55.375 31.525984 3.329756 21.960865 -0.848668
2003-03-25 10:07:19 51°22.869 2°55.38 30.519127 3.329756 21.960186 -0.814958
2003-03-25 10:07:25 51°22.892 2°55.388 31.580126 3.329756 21.960525 -0.848668
2003-03-25 10:07:29 51°22.907 2°55.393 29.776836 3.329861 21.960953 -0.848668
2003-03-25 10:07:34 51°22.925 2°55.399 29.776836 3.329861 21.960953 -0.848668
2003-03-25 10:07:40 51°22.948 2°55.406 31.014554 3.329861 21.961292 -0.848668
2003-03-25 10:07:45 51°22.967 2°55.413 30.039641 3.329756 21.960186 -0.848668
2003-03-25 10:07:51 51°22.989 2°55.421 30.443498 3.329861 21.960613 -0.882377
2003-03-25 10:07:55 51°23.004 2°55.427 27.276185 3.329861 21.960953 -0.848668
2003-03-25 10:08:01 51°23.027 2°55.434 28.437377 3.329756 21.960186 -0.848668
2003-03-25 10:08:06 51°23.046 2°55.44 28.437377 3.329756 21.960186 -0.848668
2003-03-25 10:08:11 51°23.064 2°55.447 28.074993 3.329861 21.960613 -0.848668
2003-03-25 10:08:15 51°23.079 2°55.452 28.194574 3.329861 21.960273 -0.848668
2003-03-25 10:08:20 51°23.098 2°55.458 29.641173 3.329861 21.960613 -0.848668
2003-03-25 10:08:26 51°23.12 2°55.465 29.258483 3.329861 21.960613 -0.848668
2003-03-25 10:08:31 51°23.139 2°55.471 29.496031 3.329966 21.96138 -0.814958
2003-03-25 10:08:36 51°23.158 2°55.478 29.496031 3.329966 21.96138 -0.814958
2003-03-25 10:08:40 51°23.173 2°55.482 30.009235 3.329861 21.960613 -0.848668
2003-03-25 10:08:46 51°23.196 2°55.49 30.825433 3.329861 21.960273 -0.848668
2003-03-25 10:08:49 51°23.207 2°55.494 28.580618 3.329861 21.959934 -0.848668
2003-03-25 10:08:56 51°23.233 2°55.502 29.698479 3.329966 21.960701 -0.882377
2003-03-25 10:09:01 51°23.251 2°55.508 28.926864 3.329861 21.959934 -0.882377
2003-03-25 10:09:06 51°23.27 2°55.514 28.926864 3.329861 21.959934 -0.882377
2003-03-25 10:09:10 51°23.285 2°55.518 29.666021 3.329861 21.960273 -0.882377
2003-03-25 10:09:15 51°23.304 2°55.524 28.117878 3.329966 21.96104 -0.882377
2003-03-25 10:09:19 51°23.319 2°55.529 28.848944 3.330072 21.961468 -0.814958
2003-03-25 10:09:26 51°23.345 2°55.538 28.734387 3.329966 21.960361 -0.882377
2003-03-25 10:09:30 51°23.36 2°55.544 30.563831 3.329966 21.960701 -0.848668
2003-03-25 10:09:35 51°23.379 2°55.55 30.563831 3.329966 21.960701 -0.848668
2003-03-25 10:09:40 51°23.397 2°55.556 28.031578 3.330072 21.961468 -0.814958
2003-03-25 10:09:46 51°23.419 2°55.563 28.162003 3.330177 21.961895 -0.848668
2003-03-25 10:09:50 51°23.434 2°55.568 29.235175 3.330072 21.961128 -0.882377
2003-03-25 10:09:55 51°23.453 2°55.574 28.735679 3.330072 21.961468 -0.882377
2003-03-25 10:10:00 51°23.472 2°55.58 29.117922 3.330072 21.960789 -0.814958
2003-03-25 10:10:05 51°23.49 2°55.587 29.117922 3.330072 21.960789 -0.814958
2003-03-25 10:10:10 51°23.509 2°55.593 28.117516 3.330072 21.961128 -0.848668
2003-03-25 10:10:15 51°23.528 2°55.6 28.056638 3.330177 21.961895 -0.848668
2003-03-25 10:10:19 51°23.543 2°55.605 28.569795 3.330072 21.961468 -0.848668
2003-03-25 10:10:25 51°23.566 2°55.613 27.702477 3.329966 21.960361 -0.848668
2003-03-25 10:10:30 51°23.585 2°55.62 30.175508 3.330177 21.961555 -0.882377
2003-03-25 10:10:35 51°23.603 2°55.626 30.175508 3.330177 21.961555 -0.882377
2003-03-25 10:10:39 51°23.619 2°55.632 29.72862 3.330282 21.961983 -0.848668
2003-03-25 10:10:45 51°23.641 2°55.639 28.4172 3.330072 21.960449 -0.848668
2003-03-25 10:10:50 51°23.659 2°55.645 30.854259 3.330177 21.961216 -0.848668
2003-03-25 10:10:55 51°23.678 2°55.651 30.913341 3.330177 21.961216 -0.848668
2003-03-25 10:11:00 51°23.696 2°55.658 30.552728 3.330177 21.960876 -0.848668
2003-03-25 10:11:05 51°23.715 2°55.664 30.552728 3.330177 21.960876 -0.848668
2003-03-25 10:11:10 51°23.734 2°55.671 29.500187 3.330072 21.960449 -0.848668
2003-03-25 10:11:15 51°23.754 2°55.677 29.920204 3.330282 21.961983 -0.882377
2003-03-25 10:11:20 51°23.772 2°55.681 32.048591 3.329966 21.960022 -0.848668
2003-03-25 10:11:25 51°23.791 2°55.685 28.56983 3.330282 21.962662 -0.882377
2003-03-25 10:11:29 51°23.806 2°55.688 29.001021 3.330177 21.960876 -0.848668
2003-03-25 10:11:35 51°23.828 2°55.692 29.001021 3.330177 21.960876 -0.848668
2003-03-25 10:11:40 51°23.847 2°55.696 28.802569 3.330177 21.961555 -0.848668
2003-03-25 10:11:45 51°23.867 2°55.7 27.321872 3.330177 21.961216 -0.882377
2003-03-25 10:11:50 51°23.886 2°55.703 29.55334 3.330282 21.961304 -0.848668
2003-03-25 10:11:55 51°23.905 2°55.706 28.71648 3.330177 21.960537 -0.882377
2003-03-25 10:11:59 51°23.92 2°55.709 29.712152 3.330177 21.960198 -0.882377
2003-03-25 10:12:05 51°23.943 2°55.714 29.712152 3.330177 21.960198 -0.882377
2003-03-25 10:12:10 51°23.962 2°55.717 31.716867 3.330282 21.960964 -0.814958
2003-03-25 10:12:15 51°23.981 2°55.719 29.013284 3.330282 21.960964 -0.848668
2003-03-25 10:12:20 51°24.001 2°55.721 30.716839 3.330177 21.960198 -0.848668
2003-03-25 10:12:25 51°24.02 2°55.722 31.041045 3.330177 21.959858 -0.814958
2003-03-25 10:12:30 51°24.039 2°55.722 31.528993 3.330177 21.960537 -0.848668
2003-03-25 10:12:35 51°24.059 2°55.722 31.528993 3.330177 21.960537 -0.848668
2003-03-25 10:12:39 51°24.075 2°55.721 29.621033 3.330387 21.961392 -0.848668
2003-03-25 10:12:45 51°24.098 2°55.72 29.836585 3.330282 21.960964 -0.848668
2003-03-25 10:12:50 51°24.117 2°55.718 29.720085 3.330282 21.961304 -0.848668
2003-03-25 10:12:55 51°24.136 2°55.716 29.861263 3.330387 21.961392 -0.848668
2003-03-25 10:13:00 51°24.155 2°55.712 29.684378 3.330387 21.961731 -0.848668
2003-03-25 10:13:06 51°24.178 2°55.709 29.684378 3.330387 21.961731 -0.848668
2003-03-25 10:13:10 51°24.194 2°55.707 29.309421 3.330493 21.961819 -0.814958
2003-03-25 10:13:14 51°24.209 2°55.704 28.92103 3.330387 21.961052 -0.848668
2003-03-25 10:13:20 51°24.232 2°55.701 29.361464 3.330387 21.961052 -0.848668
2003-03-25 10:13:25 51°24.252 2°55.7 29.425844 3.330387 21.960713 -0.848668
2003-03-25 10:13:30 51°24.272 2°55.698 29.109175 3.330387 21.960373 -0.848668
2003-03-25 10:13:35 51°24.291 2°55.695 29.109175 3.330387 21.960373 -0.848668
2003-03-25 10:13:40 51°24.311 2°55.693 29.835277 3.330387 21.961052 -0.882377
2003-03-25 10:13:45 51°24.33 2°55.691 29.693412 3.330493 21.961479 -0.848668
2003-03-25 10:13:50 51°24.35 2°55.689 30.303049 3.330493 21.961479 -0.848668
2003-03-25 10:13:55 51°24.37 2°55.687 31.131487 3.330493 21.961479 -0.848668
2003-03-25 10:14:01 51°24.393 2°55.684 30.877457 3.330493 21.961479 -0.848668
2003-03-25 10:14:05 51°24.409 2°55.683 30.877457 3.330493 21.961479 -0.848668
2003-03-25 10:14:10 51°24.429 2°55.68 30.991292 3.330598 21.962246 -0.848668
2003-03-25 10:14:15 51°24.449 2°55.678 30.277565 3.330598 21.962246 -0.848668
2003-03-25 10:14:19 51°24.464 2°55.676 30.125855 3.330493 21.961479 -0.848668
2003-03-25 10:14:26 51°24.493 2°55.673 30.013327 3.330493 21.961479 -0.882377
2003-03-25 10:14:30 51°24.508 2°55.669 31.592153 3.330598 21.962246 -0.848668
2003-03-25 10:14:35 51°24.528 2°55.663 31.592153 3.330598 21.962246 -0.848668
2003-03-25 10:14:39 51°24.544 2°55.658 30.329509 3.330703 21.963352 -0.848668
2003-03-25 10:14:45 51°24.566 2°55.648 29.898336 3.330598 21.962246 -0.848668
2003-03-25 10:14:50 51°24.585 2°55.64 29.376336 3.330387 21.960034 -0.882377
2003-03-25 10:14:55 51°24.604 2°55.63 31.473153 3.330598 21.961567 -0.848668
2003-03-25 10:14:59 51°24.619 2°55.621 29.578182 3.330598 21.961567 -0.848668
2003-03-25 10:15:05 51°24.64 2°55.608 29.578182 3.330598 21.961567 -0.848668
2003-03-25 10:15:10 51°24.659 2°55.596 28.798769 3.330703 21.961995 -0.848668
2003-03-25 10:15:15 51°24.676 2°55.583 28.646604 3.330598 21.961228 -0.848668
2003-03-25 10:15:20 51°24.693 2°55.568 29.794104 3.330598 21.961567 -0.848668
2003-03-25 10:15:25 51°24.711 2°55.554 29.151864 3.330598 21.961228 -0.848668
2003-03-25 10:15:30 51°24.729 2°55.541 30.227064 3.330598 21.961567 -0.848668
2003-03-25 10:15:35 51°24.745 2°55.525 30.227064 3.330598 21.961567 -0.848668
2003-03-25 10:15:39 51°24.759 2°55.513 29.894485 3.330703 21.961655 -0.882377
2003-03-25 10:15:45 51°24.78 2°55.494 32.181312 3.330809 21.962761 -0.882377
2003-03-25 10:15:50 51°24.797 2°55.478 29.994627 3.330703 21.961995 -0.882377
2003-03-25 10:15:55 51°24.814 2°55.464 29.965368 3.330703 21.961995 -0.882377
2003-03-25 10:15:59 51°24.828 2°55.452 29.418591 3.330703 21.961655 -0.882377
2003-03-25 10:16:05 51°24.849 2°55.435 29.418591 3.330703 21.961655 -0.882377
2003-03-25 10:16:10 51°24.867 2°55.42 29.758997 3.330809 21.961743 -0.848668
2003-03-25 10:16:15 51°24.884 2°55.404 27.847241 3.330914 21.962849 -0.848668
2003-03-25 10:16:20 51°24.901 2°55.389 28.115852 3.330809 21.961743 -0.814958
2003-03-25 10:16:25 51°24.918 2°55.374 28.591692 3.330703 21.960976 -0.882377
2003-03-25 10:16:30 51°24.935 2°55.358 28.231285 3.330809 21.962082 -0.848668
2003-03-25 10:16:35 51°24.951 2°55.342 28.231285 3.330809 21.962082 -0.848668
2003-03-25 10:16:39 51°24.965 2°55.329 27.323371 3.330809 21.961743 -0.848668
2003-03-25 10:16:45 51°24.985 2°55.312 28.944435 3.330914 21.96217 -0.848668
2003-03-25 10:16:50 51°25.003 2°55.297 29.217529 3.330809 21.961743 -0.848668
2003-03-25 10:16:55 51°25.02 2°55.282 29.359079 3.330809 21.962082 -0.882377
2003-03-25 10:17:00 51°25.038 2°55.268 28.47901 3.330914 21.96251 -0.848668
2003-03-25 10:17:05 51°25.055 2°55.252 28.47901 3.330914 21.96251 -0.848668
2003-03-25 10:17:10 51°25.072 2°55.237 30.39753 3.330809 21.961743 -0.848668
2003-03-25 10:17:15 51°25.09 2°55.221 29.478766 3.330914 21.962849 -0.814958
2003-03-25 10:17:19 51°25.104 2°55.21 30.406375 3.331019 21.962937 -0.848668
2003-03-25 10:17:25 51°25.125 2°55.191 30.772186 3.330809 21.962082 -0.848668
2003-03-25 10:17:30 51°25.142 2°55.177 28.869578 3.330914 21.96251 -0.814958
2003-03-25 10:17:35 51°25.159 2°55.161 28.869578 3.330914 21.96251 -0.814958
2003-03-25 10:17:39 51°25.173 2°55.149 29.997238 3.330809 21.961403 -0.848668
2003-03-25 10:17:45 51°25.194 2°55.131 30.718342 3.331019 21.962597 -0.882377
2003-03-25 10:17:50 51°25.211 2°55.116 30.08847 3.330914 21.961831 -0.848668
2003-03-25 10:17:55 51°25.228 2°55.101 30.203877 3.331125 21.963025 -0.848668
2003-03-25 10:17:59 51°25.242 2°55.089 28.249308 3.331019 21.962258 -0.848668
2003-03-25 10:18:05 51°25.263 2°55.072 28.249308 3.331019 21.962258 -0.848668
2003-03-25 10:18:10 51°25.281 2°55.057 27.886699 3.331019 21.961919 -0.848668
2003-03-25 10:18:15 51°25.299 2°55.043 29.716154 3.330914 21.961491 -0.848668
2003-03-25 10:18:20 51°25.316 2°55.028 28.510075 3.331019 21.962258 -0.848668
2003-03-25 10:18:25 51°25.333 2°55.012 27.747103 3.331125 21.963025 -0.882377
2003-03-25 10:18:30 51°25.351 2°54.997 28.985645 3.331019 21.962597 -0.848668
2003-03-25 10:18:35 51°25.368 2°54.982 28.985645 3.331019 21.962597 -0.848668
2003-03-25 10:18:39 51°25.382 2°54.971 27.919572 3.331019 21.962597 -0.848668
2003-03-25 10:18:45 51°25.403 2°54.953 29.102141 3.331125 21.962685 -0.848668
2003-03-25 10:18:50 51°25.421 2°54.939 29.019826 3.33123 21.963452 -0.848668
2003-03-25 10:18:55 51°25.438 2°54.924 28.877493 3.331125 21.963025 -0.882377
2003-03-25 10:18:59 51°25.452 2°54.912 30.06725 3.33123 21.963452 -0.848668
2003-03-25 10:19:05 51°25.473 2°54.894 30.06725 3.33123 21.963452 -0.848668
2003-03-25 10:19:10 51°25.491 2°54.879 29.28848 3.33123 21.963791 -0.882377
2003-03-25 10:19:15 51°25.509 2°54.866 29.113173 3.331125 21.962346 -0.848668
2003-03-25 10:19:20 51°25.527 2°54.853 28.997982 3.331125 21.962346 -0.848668
2003-03-25 10:19:25 51°25.545 2°54.838 27.899473 3.331335 21.96354 -0.882377
2003-03-25 10:19:30 51°25.561 2°54.823 30.48169 3.331125 21.962006 -0.848668
2003-03-25 10:19:35 51°25.576 2°54.805 30.48169 3.331125 21.962006 -0.848668
2003-03-25 10:19:40 51°25.593 2°54.79 28.184706 3.33123 21.962773 -0.882377
2003-03-25 10:19:45 51°25.611 2°54.776 29.958095 3.33123 21.962773 -0.848668
2003-03-25 10:19:50 51°25.628 2°54.761 28.411218 3.33123 21.963112 -0.848668
2003-03-25 10:19:55 51°25.645 2°54.746 29.585562 3.33123 21.962434 -0.848668
2003-03-25 10:19:59 51°25.659 2°54.734 27.374876 3.331125 21.961667 -0.848668
2003-03-25 10:20:05 51°25.68 2°54.717 27.374876 3.331125 21.961667 -0.848668
2003-03-25 10:20:10 51°25.697 2°54.702 29.955236 3.331335 21.9632 -0.848668
2003-03-25 10:20:15 51°25.716 2°54.689 29.897771 3.331335 21.962861 -0.882377
2003-03-25 10:20:20 51°25.734 2°54.675 28.823359 3.331335 21.962861 -0.848668
2003-03-25 10:20:25 51°25.752 2°54.661 29.72692 3.331335 21.962861 -0.848668
2003-03-25 10:20:30 51°25.769 2°54.647 28.859333 3.331335 21.9632 -0.882377
2003-03-25 10:20:35 51°25.787 2°54.633 28.859333 3.331335 21.9632 -0.882377
2003-03-25 10:20:39 51°25.801 2°54.621 30.393879 3.331441 21.963967 -0.848668
2003-03-25 10:20:45 51°25.822 2°54.604 29.02887 3.331335 21.9632 -0.882377
2003-03-25 10:20:50 51°25.84 2°54.59 28.474221 3.331335 21.9632 -0.848668
2003-03-25 10:20:55 51°25.857 2°54.575 28.393162 3.331441 21.963627 -0.882377
2003-03-25 10:21:00 51°25.875 2°54.561 28.363129 3.331441 21.963967 -0.848668
2003-03-25 10:21:05 51°25.893 2°54.547 28.363129 3.331441 21.963967 -0.848668
2003-03-25 10:21:10 51°25.911 2°54.533 28.477498 3.331441 21.963627 -0.848668
2003-03-25 10:21:15 51°25.928 2°54.518 30.35048 3.331335 21.962861 -0.848668
2003-03-25 10:21:20 51°25.946 2°54.504 29.386049 3.331441 21.963288 -0.848668
2003-03-25 10:21:25 51°25.964 2°54.491 28.267183 3.331546 21.964055 -0.848668
2003-03-25 10:21:30 51°25.982 2°54.476 28.124679 3.331441 21.962949 -0.848668
2003-03-25 10:21:35 51°25.999 2°54.462 28.124679 3.331441 21.962949 -0.848668
2003-03-25 10:21:40 51°26.017 2°54.447 30.314576 3.331546 21.963715 -0.848668
2003-03-25 10:21:45 51°26.034 2°54.433 28.304147 3.331441 21.963288 -0.882377
2003-03-25 10:21:50 51°26.052 2°54.419 30.834333 3.331546 21.964394 -0.882377
2003-03-25 10:21:55 51°26.07 2°54.404 30.241803 3.331441 21.962949 -0.848668
2003-03-25 10:22:00 51°26.088 2°54.39 32.000518 3.331441 21.963288 -0.882377
2003-03-25 10:22:05 51°26.105 2°54.375 32.000518 3.331441 21.963288 -0.882377
2003-03-25 10:22:10 51°26.123 2°54.361 29.764272 3.331441 21.962949 -0.814958
2003-03-25 10:22:15 51°26.14 2°54.346 29.102605 3.331546 21.963376 -0.848668
2003-03-25 10:22:21 51°26.161 2°54.328 28.569327 3.331651 21.964142 -0.848668
2003-03-25 10:22:25 51°26.176 2°54.317 29.481182 3.331546 21.963037 -0.848668
2003-03-25 10:22:37 51°26.226 2°54.292 30.150474 3.331546 21.963715 -0.848668
2003-03-25 10:22:41 51°26.241 2°54.281 30.150474 3.331546 21.963715 -0.848668
2003-03-25 10:22:46 51°26.259 2°54.267 29.510274 3.331546 21.963037 -0.882377
2003-03-25 10:22:51 51°26.277 2°54.252 27.031435 3.331546 21.963037 -0.848668
2003-03-25 10:22:55 51°26.291 2°54.242 30.429745 3.331441 21.962609 -0.814958
2003-03-25 10:23:06 51°26.332 2°54.212 30.243175 3.331546 21.963376 -0.882377
2003-03-25 10:23:10 51°26.343 2°54.197 27.780073 3.331756 21.96423 -0.814958
2003-03-25 10:23:15 51°26.362 2°54.185 30.073208 3.331441 21.96227 -0.848668
2003-03-25 10:23:19 51°26.377 2°54.174 30.059776 3.331651 21.964142 -0.848668
2003-03-25 10:23:25 51°26.397 2°54.155 29.631954 3.331651 21.963124 -0.848668
2003-03-25 10:23:30 51°26.415 2°54.141 29.413577 3.331651 21.963803 -0.848668
2003-03-25 10:23:35 51°26.432 2°54.127 29.413577 3.331651 21.963803 -0.848668
2003-03-25 10:23:40 51°26.45 2°54.114 28.162979 3.331651 21.964142 -0.848668
2003-03-25 10:23:45 51°26.468 2°54.099 30.206868 3.331651 21.963464 -0.848668
2003-03-25 10:23:50 51°26.486 2°54.086 30.323044 3.331651 21.963464 -0.882377
2003-03-25 10:23:55 51°26.504 2°54.071 29.404651 3.331651 21.963464 -0.848668
2003-03-25 10:23:59 51°26.518 2°54.06 29.107711 3.331756 21.96423 -0.848668
2003-03-25 10:24:06 51°26.541 2°54.038 29.107711 3.331756 21.96423 -0.848668
2003-03-25 10:24:10 51°26.555 2°54.027 27.363766 3.331651 21.963464 -0.848668
2003-03-25 10:24:15 51°26.573 2°54.013 28.666898 3.331862 21.964318 -0.848668
2003-03-25 10:24:20 51°26.591 2°54 28.305122 3.331756 21.963552 -0.848668
2003-03-25 10:24:25 51°26.608 2°53.985 29.554796 3.331862 21.964318 -0.848668
2003-03-25 10:24:30 51°26.624 2°53.97 30.071515 3.331756 21.963891 -0.848668
2003-03-25 10:24:35 51°26.642 2°53.955 30.071515 3.331756 21.963891 -0.848668
2003-03-25 10:24:40 51°26.659 2°53.94 29.575947 3.331756 21.963891 -0.848668
2003-03-25 10:24:45 51°26.676 2°53.926 28.741025 3.331756 21.963552 -0.848668
2003-03-25 10:24:50 51°26.693 2°53.911 28.887628 3.331967 21.965424 -0.848668
2003-03-25 10:24:55 51°26.71 2°53.896 30.301925 3.331862 21.964318 -0.848668
2003-03-25 10:24:59 51°26.724 2°53.885 28.497802 3.331862 21.963979 -0.848668
2003-03-25 10:25:05 51°26.745 2°53.867 28.497802 3.331862 21.963979 -0.848668
2003-03-25 10:25:10 51°26.763 2°53.853 29.449342 3.331862 21.963979 -0.814958
2003-03-25 10:25:15 51°26.78 2°53.838 29.204051 3.331862 21.963979 -0.882377
2003-03-25 10:25:19 51°26.794 2°53.826 28.421596 3.331967 21.964406 -0.882377
2003-03-25 10:25:26 51°26.818 2°53.805 30.146213 3.331967 21.964745 -0.848668
2003-03-25 10:25:30 51°26.83 2°53.796 29.382456 3.331862 21.963979 -0.848668
2003-03-25 10:25:35 51°26.846 2°53.781 29.382456 3.331862 21.963979 -0.848668
2003-03-25 10:25:39 51°26.862 2°53.769 28.259023 3.331967 21.964406 -0.848668
2003-03-25 10:25:45 51°26.886 2°53.755 28.012487 3.331862 21.963979 -0.882377
2003-03-25 10:25:50 51°26.905 2°53.742 27.943183 3.332072 21.964833 -0.848668
2003-03-25 10:25:55 51°26.923 2°53.728 28.403001 3.331967 21.964406 -0.848668
2003-03-25 10:25:59 51°26.938 2°53.717 27.614238 3.332072 21.964494 -0.848668
2003-03-25 10:26:05 51°26.96 2°53.701 27.614238 3.332072 21.964494 -0.848668
2003-03-25 10:26:10 51°26.978 2°53.687 27.977481 3.331967 21.964067 -0.848668
2003-03-25 10:26:15 51°26.996 2°53.673 28.543502 3.332072 21.964833 -0.848668
2003-03-25 10:26:19 51°27.01 2°53.661 30.629823 3.332072 21.965172 -0.848668
2003-03-25 10:26:25 51°27.031 2°53.643 27.527206 3.332072 21.964833 -0.848668
2003-03-25 10:26:30 51°27.049 2°53.629 26.925522 3.332072 21.964833 -0.848668
2003-03-25 10:26:35 51°27.067 2°53.615 26.925522 3.332072 21.964833 -0.848668
2003-03-25 10:26:39 51°27.081 2°53.604 28.922319 3.332072 21.964833 -0.848668
2003-03-25 10:26:45 51°27.103 2°53.586 29.586768 3.332072 21.964833 -0.848668
2003-03-25 10:26:50 51°27.121 2°53.572 29.334415 3.332072 21.964494 -0.848668
2003-03-25 10:26:55 51°27.139 2°53.558 29.943584 3.332178 21.96526 -0.882377
2003-03-25 10:26:59 51°27.153 2°53.546 29.070712 3.332178 21.96526 -0.848668
2003-03-25 10:27:05 51°27.175 2°53.528 29.070712 3.332178 21.96526 -0.848668
2003-03-25 10:27:10 51°27.193 2°53.514 30.319179 3.332178 21.96526 -0.814958
2003-03-25 10:27:15 51°27.211 2°53.5 29.400917 3.332072 21.964494 -0.882377
2003-03-25 10:27:20 51°27.229 2°53.486 27.956926 3.332072 21.964154 -0.882377
2003-03-25 10:27:25 51°27.246 2°53.471 29.241947 3.332283 21.965687 -0.882377
2003-03-25 10:27:30 51°27.264 2°53.456 28.431577 3.332178 21.964921 -0.848668
2003-03-25 10:27:35 51°27.281 2°53.442 28.431577 3.332178 21.964921 -0.848668
2003-03-25 10:27:39 51°27.295 2°53.43 30.067179 3.332178 21.964582 -0.882377
2003-03-25 10:27:45 51°27.317 2°53.412 29.772801 3.332072 21.963815 -0.848668
2003-03-25 10:27:50 51°27.335 2°53.399 30.529184 3.332178 21.964921 -0.848668
2003-03-25 10:27:55 51°27.353 2°53.385 30.319425 3.332388 21.966114 -0.882377
2003-03-25 10:28:00 51°27.37 2°53.37 27.099099 3.332178 21.964582 -0.882377
2003-03-25 10:28:06 51°27.392 2°53.354 27.099099 3.332178 21.964582 -0.882377
2003-03-25 10:28:10 51°27.406 2°53.342 27.782835 3.332283 21.965348 -0.848668
2003-03-25 10:28:15 51°27.423 2°53.327 29.053849 3.332283 21.965687 -0.848668
2003-03-25 10:28:20 51°27.441 2°53.312 26.797807 3.332388 21.966454 -0.848668
2003-03-25 10:28:25 51°27.458 2°53.298 27.130708 3.332494 21.966542 -0.848668
2003-03-25 10:28:30 51°27.475 2°53.282 26.183978 3.332283 21.964669 -0.882377
2003-03-25 10:28:35 51°27.493 2°53.268 26.183978 3.332283 21.964669 -0.882377
2003-03-25 10:28:40 51°27.51 2°53.253 26.431766 3.332178 21.963903 -0.848668
2003-03-25 10:28:45 51°27.527 2°53.238 25.858783 3.332283 21.965009 -0.848668
2003-03-25 10:28:50 51°27.545 2°53.224 27.160215 3.332283 21.964669 -0.882377
2003-03-25 10:28:55 51°27.563 2°53.21 27.549885 3.332283 21.965009 -0.848668
2003-03-25 10:29:00 51°27.58 2°53.195 27.551635 3.332283 21.965348 -0.848668
2003-03-25 10:29:05 51°27.598 2°53.181 27.551635 3.332283 21.965348 -0.848668
2003-03-25 10:29:10 51°27.615 2°53.166 31.113546 3.332388 21.965436 -0.848668
2003-03-25 10:29:15 51°27.633 2°53.151 28.677349 3.332178 21.963903 -0.848668
2003-03-25 10:29:21 51°27.653 2°53.132 29.537899 3.332494 21.965863 -0.848668
2003-03-25 10:29:25 51°27.665 2°53.117 31.052183 3.332283 21.965009 -0.848668
2003-03-25 10:29:30 51°27.681 2°53.099 31.193898 3.332388 21.965775 -0.814958
2003-03-25 10:29:35 51°27.697 2°53.078 31.193898 3.332388 21.965775 -0.814958
2003-03-25 10:29:39 51°27.709 2°53.062 30.678974 3.332178 21.963903 -0.882377
2003-03-25 10:29:45 51°27.727 2°53.036 30.809794 3.332283 21.964669 -0.814958
2003-03-25 10:29:50 51°27.741 2°53.013 31.21814 3.332494 21.965863 -0.882377
2003-03-25 10:29:55 51°27.753 2°52.989 30.370111 3.332388 21.965096 -0.882377
2003-03-25 10:29:59 51°27.764 2°52.97 29.008887 3.332494 21.965863 -0.848668
2003-03-25 10:30:05 51°27.778 2°52.939 29.008887 3.332494 21.965863 -0.848668
2003-03-25 10:30:10 51°27.79 2°52.913 30.073772 3.332388 21.965096 -0.814958
2003-03-25 10:30:15 51°27.801 2°52.886 29.912892 3.332494 21.965184 -0.848668
2003-03-25 10:30:19 51°27.808 2°52.863 30.603504 3.332283 21.96433 -0.814958
2003-03-25 10:30:25 51°27.819 2°52.829 29.620395 3.332388 21.964757 -0.848668
2003-03-25 10:30:30 51°27.828 2°52.8 28.830634 3.332494 21.965184 -0.848668
2003-03-25 10:30:35 51°27.835 2°52.77 28.830634 3.332494 21.965184 -0.848668
2003-03-25 10:30:40 51°27.841 2°52.739 28.574218 3.332599 21.965951 -0.814958
2003-03-25 10:30:45 51°27.845 2°52.707 30.262165 3.332599 21.966629 -0.848668
2003-03-25 10:30:50 51°27.848 2°52.676 31.347105 3.332704 21.967056 -0.848668
2003-03-25 10:30:55 51°27.85 2°52.644 31.397736 3.332494 21.965524 -0.848668
2003-03-25 10:30:59 51°27.852 2°52.618 29.709814 3.332599 21.965611 -0.848668
2003-03-25 10:31:05 51°27.854 2°52.58 29.709814 3.332599 21.965611 -0.848668
2003-03-25 10:31:10 51°27.855 2°52.547 30.829726 3.332494 21.964166 -0.848668
2003-03-25 10:31:15 51°27.855 2°52.515 30.230758 3.332599 21.965272 -0.848668
2003-03-25 10:31:19 51°27.856 2°52.489 29.560687 3.332494 21.964166 -0.848668
2003-03-25 10:31:25 51°27.857 2°52.451 29.328719 3.332599 21.964933 -0.814958
2003-03-25 10:31:30 51°27.857 2°52.419 30.211372 3.332704 21.965699 -0.882377
2003-03-25 10:31:35 51°27.857 2°52.387 30.211372 3.332704 21.965699 -0.882377
2003-03-25 10:31:39 51°27.856 2°52.362 31.553337 3.33281 21.967144 -0.882377
2003-03-25 10:31:45 51°27.854 2°52.323 32.815332 3.332599 21.965611 -0.848668
2003-03-25 10:31:49 51°27.852 2°52.297 29.370039 3.332704 21.966378 -0.848668
2003-03-25 10:31:55 51°27.849 2°52.258 29.29393 3.332704 21.966038 -0.848668
2003-03-25 10:31:59 51°27.847 2°52.232 31.965691 3.33281 21.966466 -0.848668
2003-03-25 10:32:05 51°27.843 2°52.193 31.965691 3.33281 21.966466 -0.848668
2003-03-25 10:32:10 51°27.84 2°52.16 32.623132 3.332599 21.965272 -0.848668
2003-03-25 10:32:15 51°27.837 2°52.128 31.606147 3.332809 21.966126 -0.848668
2003-03-25 10:32:21 51°27.833 2°52.089 31.599271 3.332809 21.965787 -0.814958
2003-03-25 10:32:25 51°27.83 2°52.064 31.580368 3.332704 21.965699 -0.848668
2003-03-25 10:32:30 51°27.828 2°52.031 31.175938 3.332809 21.966126 -0.848668
2003-03-25 10:32:35 51°27.824 2°52 31.175938 3.332809 21.966126 -0.848668
2003-03-25 10:32:40 51°27.821 2°51.968 28.808054 3.332809 21.966126 -0.848668
2003-03-25 10:32:45 51°27.818 2°51.935 31.355217 3.332809 21.965787 -0.848668
2003-03-25 10:32:49 51°27.815 2°51.909 28.489054 3.332915 21.966893 -0.848668
2003-03-25 10:32:55 51°27.812 2°51.871 29.574385 3.332809 21.965787 -0.848668
2003-03-25 10:32:59 51°27.811 2°51.845 30.046482 3.332915 21.966893 -0.848668